GEFSNE_500_meanwind_006.txt.gz
Wind_Speed
65 65 67 70 74 79 84 90 95 96 94 98 104 109 114 118 118 115 111 107 101 96 91 88 86 84 83 82 82 82 82 82 83 83 84 86 89 92
66 68 71 76 80 85 90 96 102 107 107 106 111 115 116 113 106 101 94 89 84 81 80 80 81 81 80 78 76 75 74 74 74 76 78 80 82 83
69 73 78 82 87 92 98 103 108 114 118 117 115 110 102 93 85 79 75 75 77 80 82 81 80 77 74 71 70 69 69 69 68 70 72 73 74 76
74 79 84 89 94 100 106 111 116 119 121 117 104 89 79 73 69 67 68 73 78 80 77 73 71 68 66 65 65 65 65 66 65 65 66 68 69 70
81 87 92 98 103 109 115 118 120 116 108 98 86 74 68 65 65 66 68 70 70 68 65 63 61 59 58 59 60 60 61 61 61 62 63 65 67 67
88 94 100 106 112 117 119 119 113 102 90 82 77 72 68 67 68 69 65 59 53 51 50 50 50 51 51 53 53 53 53 54 55 57 59 62 65 66
94 101 107 113 118 119 116 108 99 90 83 79 77 74 70 69 68 65 57 47 40 43 46 45 47 47 47 46 43 42 41 42 45 49 53 57 61 63
100 107 113 117 116 110 102 95 90 86 82 79 75 71 66 64 60 52 47 41 34 36 42 40 44 42 39 35 30 26 25 26 29 33 40 47 54 58
107 113 116 113 106 98 91 87 83 77 73 69 63 57 54 49 46 42 39 36 32 33 35 34 36 33 27 20 14 13 14 17 20 24 28 34 43 52
112 114 110 102 93 88 85 80 72 63 56 51 46 42 39 37 37 36 32 28 26 31 32 28 26 23 16 9 7 9 13 18 22 25 27 29 34 43
110 106 98 91 85 80 76 68 57 46 39 35 33 31 32 34 34 31 27 24 24 27 28 24 21 16 11 9 9 11 15 20 25 26 26 26 27 35
101 92 86 81 76 70 63 52 40 31 26 24 25 28 30 31 30 28 26 24 22 23 24 22 19 15 12 13 14 15 16 21 24 23 20 17 15 21
90 82 76 72 64 56 46 37 29 24 21 21 23 24 25 25 25 25 25 24 23 23 24 22 20 17 15 15 19 17 15 17 18 17 15 11 4 7
81 74 68 60 49 40 33 28 25 23 22 22 21 21 22 21 22 23 24 26 27 27 26 23 19 17 16 15 15 13 10 10 11 11 11 8 6 12
71 64 56 46 35 29 25 24 23 21 20 19 20 21 21 21 21 21 23 26 30 31 27 22 18 16 13 8 5 3 2 5 8 10 8 4 8 17
59 51 42 34 28 25 25 23 21 19 19 19 20 20 20 20 19 19 21 23 26 28 24 20 18 15 10 7 6 6 7 9 11 12 12 8 9 17
47 39 32 27 27 28 25 22 20 20 20 20 20 20 20 20 19 19 20 22 23 22 20 18 17 15 13 12 11 12 12 13 16 18 19 16 10 14
38 30 26 25 25 22 20 20 20 21 21 21 21 20 19 18 18 18 20 21 21 19 17 16 16 15 15 15 16 15 16 17 19 21 22 21 17 12
30 25 25 25 22 19 20 21 22 22 23 23 22 21 19 18 17 17 18 19 19 16 15 14 14 14 15 15 16 16 16 18 21 22 21 20 18 15
26 25 24 21 21 21 22 22 22 23 23 23 22 20 18 17 16 15 16 16 15 13 11 12 13 12 12 14 14 14 15 17 20 22 21 19 19 19
25 24 21 22 22 22 21 21 22 22 23 23 22 20 17 15 14 13 13 13 12 12 9 8 9 10 10 12 13 13 13 15 18 21 23 22 21 22
22 21 21 21 21 21 22 22 22 22 22 22 21 19 17 14 12 11 10 10 9 9 8 6 7 8 8 11 13 12 12 13 16 20 23 25 24 24
20 20 19 20 21 22 23 23 22 20 20 19 19 18 16 13 11 10 9 8 7 6 5 6 5 7 8 10 12 13 13 12 13 17 21 24 27 29

GEFSNE_500_meanwind_012.txt.gz
Wind_Speed
66 69 72 75 76 76 76 77 79 80 80 81 87 93 100 107 113 118 123 126 127 125 121 117 111 104 98 93 90 87 85 84 83 83 85 87 88 89
69 72 75 77 76 76 77 79 83 86 89 91 97 103 110 117 123 127 127 124 119 112 105 98 92 86 82 78 76 74 73 72 73 74 76 78 80 81
72 76 76 76 75 77 80 84 89 95 100 101 106 111 117 120 120 116 111 105 100 94 89 85 81 77 74 72 70 69 68 69 69 70 72 73 74 77
75 76 75 75 77 80 85 91 97 103 109 112 114 115 112 107 100 93 87 83 79 75 71 68 64 62 61 60 61 61 62 62 62 61 61 62 63 64
74 74 75 77 81 86 92 98 103 109 114 117 113 105 94 84 76 68 63 59 56 55 52 49 47 46 46 47 48 50 50 50 50 51 52 54 55 56
72 74 77 81 86 92 98 104 110 112 111 106 97 83 70 60 55 49 43 41 40 41 40 38 37 37 38 39 40 41 42 43 45 47 48 49 50 50
73 76 81 87 92 98 105 110 110 106 97 87 74 61 52 46 41 38 35 33 34 37 34 34 35 35 36 36 36 36 37 39 40 41 41 41 41 42
76 81 87 93 98 104 109 108 100 90 79 66 56 48 43 39 37 34 33 31 30 32 31 31 33 33 35 36 36 35 34 33 31 29 28 28 28 29
82 87 93 98 104 107 105 94 81 70 61 53 47 42 38 36 33 30 29 29 30 32 29 27 31 33 35 36 34 30 27 24 20 18 18 19 21 23
88 93 98 102 105 103 92 78 63 54 49 46 44 40 36 34 32 29 27 25 28 34 35 32 32 33 34 34 30 24 20 19 17 17 18 20 22 23
93 98 102 104 100 90 76 61 49 43 42 42 40 37 36 35 34 32 29 26 26 31 36 36 35 32 31 30 25 19 17 17 18 19 21 23 25 25
96 100 102 97 85 72 59 47 39 38 37 36 35 34 35 34 35 35 33 31 31 31 33 33 32 29 25 26 20 16 15 16 18 20 21 23 25 27
98 98 93 81 69 57 47 39 36 35 34 32 32 32 33 33 33 34 35 35 34 33 32 30 28 26 24 20 16 13 11 13 15 18 21 23 26 29
96 89 77 65 54 45 38 35 34 34 32 31 31 32 32 31 31 32 32 34 35 33 30 28 25 23 22 20 18 16 16 15 16 18 21 23 26 28
86 74 62 52 43 37 35 33 32 31 30 30 31 31 32 31 29 28 29 30 32 30 26 22 20 21 21 21 21 21 20 20 21 21 21 22 23 25
71 59 50 42 37 34 34 32 31 31 32 31 31 31 32 31 29 27 25 24 24 24 21 17 16 18 19 22 24 24 24 23 22 22 21 21 21 21
58 47 40 35 33 33 33 33 33 33 33 33 33 32 32 31 29 26 24 22 20 18 16 13 12 14 18 21 24 24 25 24 23 21 21 20 19 17
47 39 34 32 31 31 31 32 33 33 33 33 33 31 30 28 27 25 22 19 16 14 12 9 9 12 15 19 22 23 24 24 24 25 23 21 18 15
38 33 31 31 30 30 30 31 31 32 32 31 30 29 28 27 25 23 20 17 14 11 10 7 6 8 12 16 21 24 25 25 26 26 24 20 16 15
32 30 29 29 29 29 30 30 30 30 29 29 28 27 25 24 23 21 17 14 11 9 7 6 4 5 9 13 18 23 25 25 26 25 22 18 16 17
28 28 27 27 28 28 27 27 27 27 27 27 26 25 24 22 21 19 16 13 9 7 5 4 3 3 6 11 16 21 24 25 26 24 21 19 19 20
25 25 25 25 25 25 25 25 26 27 27 27 26 25 24 22 20 18 15 12 8 5 4 3 2 1 3 7 12 18 21 23 24 23 22 22 23 23
23 23 23 22 22 22 24 25 26 27 27 27 25 24 24 23 21 18 14 11 7 4 2 1 1 2 3 6 10 15 18 20 20 20 22 24 26 27

GEFSNE_500_meanwind_018.txt.gz
Wind_Speed
54 57 60 62 64 66 69 72 74 74 73 74 76 78 80 83 86 91 95 100 105 109 111 111 109 103 96 89 85 84 84 86 89 93 98 103 109 115
57 60 62 64 66 69 72 73 74 75 76 75 78 81 86 90 96 102 106 110 112 110 105 96 86 76 69 65 62 62 62 64 67 70 75 80 85 91
60 62 64 67 70 71 72 74 75 77 77 77 82 87 93 99 105 109 110 107 100 89 79 70 62 58 54 51 49 49 50 51 52 54 57 61 66 72
62 65 67 69 70 72 73 75 76 79 81 83 88 95 101 107 108 105 97 86 74 65 60 55 52 48 45 43 44 45 46 47 48 49 49 51 53 56
64 66 68 69 71 73 74 76 79 83 88 93 97 102 105 105 98 87 73 63 57 53 51 49 46 43 42 43 44 44 44 45 45 46 46 47 47 48
66 68 69 71 72 74 76 80 85 90 96 102 105 105 100 90 78 65 54 50 47 46 46 44 42 42 43 44 45 46 45 44 44 44 45 45 45 45
67 69 70 71 73 77 81 87 92 98 104 107 104 96 82 69 58 49 44 41 40 43 42 41 41 42 44 45 46 47 47 45 44 43 43 44 43 43
68 69 71 73 77 82 88 94 100 104 105 100 90 76 62 52 45 41 39 36 35 38 39 38 40 41 43 43 43 43 43 42 42 41 40 39 38 38
69 70 73 77 83 88 94 100 103 101 94 83 69 57 49 44 39 37 35 34 34 37 37 35 38 39 40 38 37 36 36 35 33 32 31 31 31 31
70 73 78 83 90 95 99 101 96 86 74 63 55 47 43 40 38 36 34 32 33 36 37 35 35 36 35 32 30 29 29 28 27 26 25 26 26 27
73 78 84 90 95 100 99 93 80 67 57 51 46 43 41 40 38 37 36 35 32 33 36 35 34 31 31 27 25 25 26 25 25 25 24 25 26 27
78 84 90 95 99 97 89 76 61 52 47 44 43 42 40 40 40 40 39 38 35 32 32 32 30 26 23 25 23 24 26 27 27 26 25 25 27 28
83 89 94 96 93 84 71 58 49 43 41 40 40 39 40 40 40 40 40 39 37 33 31 28 26 23 19 19 23 26 28 29 28 27 27 27 27 27
88 93 94 89 78 66 54 46 41 39 39 38 38 39 39 39 39 38 38 38 38 34 29 26 23 21 19 18 21 25 28 30 29 28 27 27 27 27
91 91 84 73 61 51 43 39 38 37 36 36 36 36 36 36 36 35 34 34 35 34 28 24 21 19 19 18 20 24 27 27 28 28 28 26 26 27
87 78 66 56 47 39 36 35 34 33 33 33 33 33 34 33 33 31 31 30 30 31 29 24 20 18 18 19 21 25 29 29 28 27 25 25 26 26
74 62 51 43 37 34 33 33 32 32 32 32 32 32 32 32 31 30 29 28 27 25 25 24 21 17 16 17 19 24 28 29 28 25 23 23 24 26
59 47 39 34 32 31 30 30 31 31 31 32 32 32 31 31 30 29 29 27 25 23 20 19 18 16 16 17 21 23 26 27 25 24 22 21 23 26
44 35 30 29 28 27 27 28 29 30 31 32 31 31 31 30 29 28 27 25 23 20 17 15 14 13 12 15 20 23 23 23 22 21 20 22 25 27
32 27 24 24 25 25 26 27 29 31 31 31 31 31 30 29 28 26 25 22 19 17 15 12 10 9 9 11 15 18 19 20 20 19 19 22 25 27
23 20 21 22 23 24 25 27 29 30 31 31 31 31 30 29 27 25 23 20 16 14 11 9 7 6 7 10 14 16 16 17 18 18 18 20 23 26
17 17 18 20 22 23 26 27 29 31 31 31 31 30 29 28 26 24 21 17 14 11 8 6 4 4 6 9 12 14 14 15 17 17 16 17 19 22
13 15 17 19 21 23 26 28 29 31 32 32 31 30 29 27 25 22 18 14 11 8 6 4 3 3 6 9 11 12 12 14 16 17 17 16 18 22

GEFSNE_500_meanwind_024.txt.gz
Wind_Speed
48 49 51 53 54 55 56 58 61 63 63 63 65 67 69 70 72 74 75 78 80 84 88 92 96 100 103 105 106 105 103 99 96 93 90 89 89 90
49 51 53 55 55 56 59 62 65 67 67 67 69 70 71 72 75 78 81 85 89 94 99 102 105 106 104 100 94 86 79 72 67 64 62 62 62 62
52 53 55 55 57 60 62 64 66 68 69 68 70 72 74 77 80 84 89 93 98 102 104 104 101 95 86 77 67 60 55 51 49 48 48 49 49 50
54 56 56 58 60 63 64 65 67 68 70 70 71 74 78 83 87 91 96 100 101 100 96 90 81 71 62 54 49 45 43 42 42 43 44 46 47 48
56 57 59 61 63 64 66 67 68 69 71 73 76 80 85 90 94 98 99 97 91 84 76 68 60 53 48 45 42 40 38 38 39 40 41 43 45 47
58 60 62 63 64 65 66 67 68 71 75 79 82 87 92 97 99 97 90 81 71 63 57 53 48 46 44 42 40 39 38 38 38 38 39 40 41 42
60 61 62 64 64 65 66 68 72 76 80 84 89 94 97 97 93 85 74 62 54 52 48 46 45 43 43 42 41 40 39 38 38 38 37 37 37 38
60 61 62 63 63 65 68 72 77 82 87 92 96 98 95 89 79 67 58 51 47 48 47 43 43 42 42 43 42 41 39 38 37 37 36 35 35 34
60 61 61 62 64 68 72 77 83 89 94 97 96 91 82 71 62 54 50 48 47 47 46 42 41 40 41 42 43 41 38 37 36 35 34 33 34 35
59 60 62 64 68 72 76 81 87 93 95 92 86 75 65 56 52 50 48 46 43 44 45 42 39 38 38 40 42 40 38 36 34 33 33 33 34 35
59 61 65 68 72 77 82 87 91 91 88 79 70 60 53 51 51 49 47 46 42 41 44 42 39 36 34 37 40 39 36 34 32 31 32 32 33 34
61 65 69 73 78 83 87 89 88 82 72 62 55 51 50 50 50 49 47 46 44 42 42 40 37 36 31 32 37 37 34 32 31 30 31 32 34 35
63 68 72 77 82 86 88 86 78 67 57 49 46 46 47 48 48 48 48 47 45 43 42 39 35 34 32 27 30 34 33 30 29 30 31 33 35 36
67 72 77 81 85 86 83 74 63 53 46 42 42 44 45 46 46 46 46 46 46 44 41 38 34 31 28 24 24 28 29 28 28 29 31 33 36 37
73 77 81 84 84 79 70 59 48 41 38 39 41 43 44 45 45 44 44 43 43 43 41 37 32 28 24 20 19 21 23 25 27 28 30 32 33 33
77 80 83 82 76 65 54 44 37 35 36 38 40 42 43 44 44 44 42 40 38 36 37 35 30 26 20 17 15 15 17 20 23 26 27 27 28 28
79 81 78 71 59 48 39 33 32 34 36 39 41 43 43 43 43 42 40 38 34 31 28 28 27 23 19 14 10 10 13 17 20 22 21 22 24 26
80 76 66 54 42 33 28 28 31 33 36 39 41 42 42 41 39 38 37 34 30 27 24 21 19 18 17 15 11 8 12 16 19 21 21 21 22 26
72 60 47 36 28 23 23 26 29 33 36 39 41 41 40 38 36 34 32 29 26 24 21 18 15 13 11 13 16 14 14 16 19 21 22 23 23 24
55 41 30 22 18 19 21 25 29 32 35 38 39 39 37 35 33 31 28 25 22 20 18 17 14 12 10 10 13 17 18 18 19 20 22 23 23 24
35 24 17 14 15 18 21 25 29 32 35 37 38 37 35 32 30 28 26 23 21 19 17 15 14 13 12 12 14 16 18 19 19 20 20 20 21 22
17 12 9 11 14 18 21 25 29 32 34 36 36 35 34 31 29 27 25 23 21 19 17 15 14 13 14 14 16 16 17 19 21 22 22 21 20 19
7 6 7 11 15 19 22 26 29 32 34 35 35 34 33 31 30 28 25 23 21 18 17 16 16 15 15 16 16 16 17 19 20 21 23 22 21 20

GEFSNE_500_meanwind_030.txt.gz
Wind_Speed
42 43 44 44 46 48 51 53 55 56 56 56 58 59 61 62 63 64 65 66 67 68 70 72 74 76 78 81 84 87 90 92 94 97 98 100 101 102
44 44 45 46 49 51 54 57 59 60 60 61 62 63 63 64 65 65 66 67 69 71 74 76 79 82 86 89 92 95 97 98 98 98 97 96 94 93
44 45 46 49 52 55 58 60 62 63 64 64 66 66 67 67 66 67 68 70 73 77 80 84 87 91 95 97 98 98 96 92 89 85 80 76 74 72
45 47 49 52 56 59 61 62 64 65 66 66 67 68 68 69 69 71 73 76 80 84 88 92 96 97 97 96 92 87 81 75 70 66 62 60 58 57
47 50 54 57 59 60 62 64 66 67 68 68 68 68 69 72 73 75 78 82 88 92 95 97 95 93 88 83 76 70 65 61 59 57 55 54 53 51
51 54 57 58 60 62 64 66 67 67 68 69 69 70 72 75 78 80 83 88 91 94 93 90 85 80 74 69 64 60 58 56 55 53 52 51 50 48
54 56 58 60 62 64 66 67 67 68 69 71 71 73 76 79 82 85 87 88 87 85 81 76 72 68 64 62 60 58 57 56 53 51 50 49 48 47
55 57 59 61 63 65 67 67 69 70 72 73 75 78 81 84 85 86 86 83 77 72 69 63 62 60 59 58 58 58 57 55 52 50 48 47 46 46
56 58 60 63 64 66 67 68 70 73 76 78 79 82 84 85 85 82 78 73 67 63 61 56 56 56 56 56 57 57 56 54 52 49 46 45 44 44
57 59 61 63 65 66 68 70 73 76 79 82 84 85 85 83 79 74 68 62 57 56 59 56 54 54 52 52 55 56 55 52 49 46 44 43 42 42
58 60 62 64 66 69 71 74 76 79 82 85 85 83 79 74 69 63 58 55 53 53 58 57 54 52 48 47 51 52 51 49 45 42 40 40 40 40
59 61 64 66 70 73 75 77 79 81 82 81 78 73 67 61 57 55 54 54 54 53 54 53 50 48 42 39 42 46 46 44 40 37 36 35 36 36
60 63 67 70 73 75 78 80 80 79 76 70 64 58 53 51 51 52 53 54 54 53 51 48 43 40 38 32 32 37 39 38 35 32 30 30 30 31
63 67 71 73 76 78 80 80 77 71 64 56 49 45 44 45 47 50 52 52 51 49 46 42 37 33 30 27 26 29 32 32 29 27 25 23 23 25
68 72 74 76 79 80 78 73 65 56 47 41 38 38 39 42 45 47 47 46 44 44 42 38 34 30 27 24 22 23 24 25 24 20 18 18 19 21
72 75 77 78 77 73 66 57 46 39 34 32 31 33 37 41 43 42 41 39 36 36 37 35 32 28 24 21 18 17 18 18 19 18 16 16 18 19
74 75 75 72 66 56 46 37 31 28 26 27 30 34 37 39 39 38 36 34 32 29 28 29 29 28 24 19 14 14 14 16 17 18 18 18 21 22
72 69 65 57 47 37 29 25 23 22 24 27 31 34 35 34 34 33 33 31 30 28 25 23 22 22 23 23 19 13 13 15 17 19 19 20 22 25
62 56 47 37 29 22 20 19 19 21 24 28 31 32 32 31 31 30 30 29 28 27 26 23 21 20 18 18 21 20 16 16 17 20 22 22 22 25
47 39 30 23 18 16 16 18 20 22 25 29 31 31 30 30 29 29 28 27 26 25 25 24 23 21 19 18 18 21 22 20 19 20 22 23 24 26
32 26 20 16 15 16 17 19 22 24 26 29 30 30 29 29 28 28 27 27 27 25 25 25 24 23 21 20 20 21 23 24 23 22 21 21 22 24
25 21 17 16 16 17 19 21 23 25 27 29 30 30 29 29 28 27 27 27 27 26 25 25 24 24 23 23 22 22 22 23 25 25 23 21 21 20
22 19 17 17 18 19 21 23 24 26 27 29 29 29 29 28 28 27 27 27 26 26 25 25 24 25 25 25 24 23 23 23 23 24 24 23 21 19

GEFSNE_500_meanwind_036.txt.gz
Wind_Speed
49 48 48 48 48 48 49 50 49 50 50 52 54 57 59 60 62 63 65 66 66 67 67 68 69 69 69 70 70 71 72 73 74 75 76 78 79 81
50 50 50 51 50 50 51 52 52 52 54 55 57 59 62 65 66 67 68 69 69 70 71 71 71 72 73 73 74 75 77 78 79 81 82 84 86 87
50 50 51 52 52 51 53 54 55 55 57 59 61 63 66 68 70 71 71 72 72 73 74 75 75 76 77 78 79 80 82 83 85 86 88 89 91 92
50 51 51 52 53 55 55 56 57 59 62 63 65 67 69 71 72 72 73 74 75 76 78 79 80 81 82 82 83 84 84 85 86 87 88 89 89 88
50 50 52 53 56 57 58 58 61 64 66 68 69 70 71 72 73 74 75 76 78 79 80 82 83 83 84 84 84 84 85 85 85 84 83 81 80 78
49 51 53 55 57 60 61 62 64 66 69 70 70 71 72 74 75 75 76 78 79 81 83 84 84 85 85 85 84 82 81 80 79 78 77 76 74 73
49 51 54 56 58 61 62 64 66 68 70 71 71 72 73 75 76 77 78 79 80 83 84 84 84 83 81 79 77 75 75 75 75 74 72 69 67 65
49 52 54 56 59 61 62 64 66 68 70 71 71 73 75 77 78 80 81 81 81 81 80 77 76 73 70 69 70 70 70 70 69 66 62 60 58 58
49 52 53 55 56 59 61 63 66 68 70 72 73 75 77 79 80 81 80 79 75 72 68 63 63 62 62 62 63 64 63 62 58 56 54 52 51 50
47 49 51 53 55 58 61 64 66 69 71 74 75 77 78 79 77 75 71 66 61 59 58 55 54 55 54 55 56 56 54 52 49 46 44 43 43 43
46 47 50 53 56 59 62 64 67 70 73 74 76 76 75 72 69 65 59 54 51 51 53 50 48 46 44 44 46 47 46 45 43 40 38 37 37 37
43 47 50 54 57 60 63 66 68 70 72 73 73 71 68 64 59 54 49 47 45 44 45 43 41 40 36 35 39 42 43 43 40 36 33 32 32 30
44 48 52 57 60 63 66 67 68 68 68 66 64 61 56 52 48 45 43 42 41 40 40 38 36 36 35 33 33 37 38 37 36 33 30 28 27 25
47 51 55 59 62 64 64 65 64 62 59 56 52 48 44 42 40 40 39 39 39 39 38 37 34 34 33 32 30 31 33 34 32 30 27 26 24 22
50 54 57 60 61 61 60 58 55 52 49 45 41 38 36 35 35 36 37 37 38 38 37 35 34 33 34 33 29 29 28 29 31 28 26 25 23 22
53 56 58 59 58 56 53 50 48 44 39 36 33 32 32 33 34 35 35 36 35 36 38 37 35 34 34 34 31 28 27 25 26 28 26 25 24 22
54 56 56 55 52 49 47 44 41 36 33 30 30 31 32 33 34 35 34 34 34 34 34 36 36 35 35 35 32 29 27 26 26 26 25 25 26 25
53 53 53 50 48 46 43 40 36 32 30 30 30 30 31 32 33 34 34 34 33 34 34 34 33 31 31 34 36 33 30 28 28 28 27 24 24 26
53 53 51 49 45 42 39 37 33 30 30 30 30 31 31 32 33 33 33 33 32 33 35 35 34 31 29 27 30 35 32 29 27 27 27 26 24 26
53 52 49 45 41 39 37 34 31 30 30 30 31 31 32 32 33 33 33 32 31 32 33 35 35 33 32 30 28 31 34 32 29 27 26 26 26 27
52 49 45 41 39 36 33 31 29 29 30 31 31 32 32 33 33 33 32 32 32 33 33 33 34 34 34 33 31 30 32 34 33 31 27 24 23 25
49 45 41 37 35 32 30 29 29 29 30 31 32 33 33 33 33 33 33 33 33 33 33 32 33 34 34 34 33 31 29 30 32 33 31 27 23 22
45 40 36 34 32 30 29 28 29 29 30 32 33 33 34 34 34 34 34 33 33 32 32 31 32 33 34 34 34 32 31 30 29 29 29 28 26 23

GEFSNE_500_meanwind_042.txt.gz
Wind_Speed
61 60 59 58 56 55 54 54 54 54 54 54 56 58 58 58 58 59 59 59 61 62 62 64 64 65 67 68 68 69 70 71 72 73 73 74 75 76
62 61 60 59 59 58 57 56 56 56 56 57 59 59 60 60 61 62 62 62 63 64 65 67 69 69 70 71 72 73 74 75 76 77 77 78 78 79
62 61 61 61 61 59 59 58 57 57 59 60 60 61 62 63 64 64 64 65 66 67 68 69 71 72 73 74 74 76 77 78 79 80 81 82 83 84
61 61 61 61 61 60 59 58 58 59 60 61 62 63 64 65 66 67 67 67 68 69 70 71 72 73 74 75 77 78 79 80 81 82 82 82 82 83
57 58 59 59 59 59 58 58 58 59 60 63 64 64 65 67 67 67 68 68 69 70 71 73 74 76 77 78 79 79 80 80 80 79 78 77 78 78
50 52 53 54 55 55 56 56 58 59 61 63 64 65 66 66 67 67 67 68 70 71 73 75 77 78 79 79 79 78 77 75 74 73 71 70 70 70
43 45 47 49 49 50 53 55 56 59 60 63 64 64 65 66 66 66 68 69 71 74 75 77 78 78 78 77 75 73 71 69 67 65 63 63 63 63
38 39 42 44 44 48 50 52 55 58 60 61 61 63 64 65 66 68 69 71 72 75 75 74 74 73 71 70 68 66 63 61 59 57 57 57 57 57
33 36 39 40 43 46 49 52 54 55 56 57 59 61 63 65 67 68 70 71 71 72 70 67 67 66 65 63 61 58 56 54 52 50 49 48 48 48
30 34 36 38 41 44 46 48 50 52 54 57 59 61 63 65 66 67 68 67 67 67 66 62 61 59 56 54 54 53 51 49 46 44 43 43 43 42
28 31 33 36 38 41 44 46 50 53 55 57 59 61 63 63 63 63 63 62 61 60 59 55 51 47 46 48 50 49 48 46 43 41 39 38 39 38
25 28 32 35 38 41 44 47 50 53 55 56 58 59 59 59 59 58 56 54 52 50 48 45 43 41 39 41 44 45 44 42 40 38 37 36 36 35
25 29 33 36 39 42 45 48 50 52 54 55 56 57 56 55 54 52 50 47 45 43 42 39 38 38 37 36 37 40 40 39 38 38 38 37 35 33
28 31 34 38 41 44 47 49 50 52 54 55 55 54 53 51 49 46 44 41 40 40 39 37 36 35 35 34 34 35 36 37 37 37 37 36 35 33
31 34 37 40 43 46 48 50 51 53 54 54 53 52 50 47 45 42 40 38 38 38 37 37 35 34 34 33 33 34 33 33 35 35 35 35 35 34
33 36 40 43 46 47 49 51 53 54 53 51 49 47 45 43 40 38 37 36 36 37 38 38 37 35 34 35 35 34 33 32 31 33 32 32 33 33
37 40 43 46 48 49 51 52 52 51 49 47 45 42 40 38 36 35 34 34 34 35 37 38 38 36 35 36 36 35 33 32 31 32 31 30 31 32
39 42 45 47 49 50 51 50 49 47 44 42 40 38 36 35 34 33 33 33 34 35 37 37 36 35 35 35 37 37 34 33 32 32 32 30 29 31
42 44 47 48 49 50 49 47 45 42 40 38 36 35 34 33 33 33 34 34 34 35 37 37 37 35 33 31 31 37 35 33 32 31 32 30 29 29
44 46 48 49 49 48 46 44 41 39 37 36 34 34 33 33 33 34 34 35 35 35 36 37 38 37 35 32 29 32 37 35 31 30 29 29 28 28
46 48 49 49 47 46 44 41 39 37 36 35 34 34 33 34 34 35 35 35 35 35 35 36 37 38 37 35 32 31 34 35 33 31 30 28 26 26
47 49 49 47 45 44 41 39 38 37 35 35 34 34 34 35 35 36 36 36 36 36 35 35 36 36 37 36 34 32 31 32 32 33 33 31 28 25
48 49 48 46 45 43 41 39 37 36 35 35 35 35 36 36 36 37 37 37 36 36 36 35 34 35 36 36 34 33 32 30 30 30 32 32 30 28

GEFSNE_500_meanwind_048.txt.gz
Wind_Speed
66 66 65 64 62 61 60 60 59 58 57 57 55 53 53 53 53 53 53 54 55 57 58 60 60 60 59 60 60 61 61 62 62 63 64 64 64 65
63 63 63 62 61 60 59 58 58 58 58 57 56 56 55 56 56 56 57 57 59 59 60 62 62 63 63 63 63 64 64 64 64 65 65 66 67 68
57 58 59 58 58 58 58 58 58 58 58 57 57 57 57 58 58 59 60 60 62 63 63 64 64 64 65 65 65 64 64 64 65 65 66 67 69 71
49 50 51 53 53 54 55 55 56 57 57 57 58 59 59 60 61 62 61 62 63 64 65 65 66 66 66 65 64 64 65 65 66 67 69 70 71 73
42 43 44 46 48 49 51 51 52 53 55 55 56 58 59 60 60 61 61 62 64 65 66 66 66 65 64 64 64 65 65 66 68 69 70 72 73 74
34 36 37 39 40 42 44 46 46 48 50 51 53 55 56 58 59 61 62 63 63 64 63 63 64 64 64 64 65 66 67 67 68 69 70 72 72 73
28 29 31 32 34 36 38 40 41 43 46 48 50 52 54 55 57 58 59 59 60 61 62 63 63 64 65 66 67 67 67 68 69 69 69 69 69 69
23 23 24 25 27 29 32 34 36 40 43 45 47 49 51 52 53 55 56 58 60 61 62 63 63 64 65 66 66 66 67 66 66 65 65 65 64 63
19 19 20 21 24 26 28 30 33 36 38 41 43 46 48 49 52 54 56 58 59 60 60 60 62 62 63 64 64 63 62 61 61 60 58 56 55 54
17 17 16 18 19 21 24 26 30 33 36 39 42 45 48 50 52 54 56 57 59 60 59 59 60 60 60 60 59 59 58 57 55 52 49 47 47 47
16 16 17 18 20 21 24 27 30 33 36 39 42 45 48 51 53 55 56 57 58 59 59 58 57 55 54 55 55 54 52 49 47 45 43 42 41 41
18 18 19 20 22 24 26 29 32 35 38 41 44 48 50 52 54 55 56 57 58 58 58 55 53 51 48 48 48 47 46 45 44 43 41 40 39 38
21 22 23 24 26 28 30 33 36 38 41 44 47 50 52 53 54 55 56 56 56 55 54 51 48 46 43 40 41 42 42 41 41 41 40 38 38 37
24 25 26 28 30 32 34 37 39 42 45 48 50 52 53 54 54 55 54 53 52 51 49 46 42 41 39 37 36 38 39 39 38 38 37 37 37 37
27 28 30 31 34 36 38 40 43 45 48 50 52 54 54 54 54 53 52 49 48 46 45 42 40 39 37 36 34 35 36 36 37 36 36 36 36 37
30 32 33 35 37 39 41 44 46 48 50 52 54 54 54 53 51 50 48 46 44 44 43 41 39 37 36 35 34 35 35 35 35 35 34 34 35 36
33 35 36 38 40 42 44 46 49 51 52 53 53 52 51 50 49 47 45 44 42 41 41 40 38 37 36 35 35 35 35 35 35 33 32 31 33 35
36 37 39 41 43 45 47 49 50 52 53 52 51 50 49 47 47 46 44 42 40 39 39 38 38 37 36 35 37 37 36 36 34 34 33 31 31 34
39 40 41 43 45 47 49 50 52 52 52 51 50 49 47 47 45 44 43 41 39 38 38 38 38 38 36 34 34 38 38 36 35 33 33 32 30 30
41 42 44 45 47 49 51 52 52 52 52 51 49 48 47 46 44 43 41 40 39 38 38 39 39 39 38 35 33 34 39 38 35 33 32 31 30 30
42 44 46 47 49 51 53 53 53 53 52 50 49 48 46 44 43 42 41 40 39 38 37 38 39 40 39 38 35 33 36 39 38 35 33 31 29 29
44 46 47 49 51 53 54 54 54 53 51 49 48 46 44 43 42 41 41 40 39 39 38 37 38 39 39 39 37 34 33 35 37 36 35 33 30 27
46 48 49 51 53 54 55 55 54 52 50 48 46 44 43 42 42 41 40 40 39 39 38 37 37 37 38 38 36 34 34 33 33 33 34 36 34 30

GEFSNE_500_meanwind_054.txt.gz
Wind_Speed
50 51 51 52 54 55 55 56 56 55 54 54 54 52 53 54 54 56 55 54 54 53 52 50 49 47 46 46 46 47 47 48 50 51 51 52 53 54
48 48 48 49 50 51 51 52 52 51 50 49 49 48 48 49 51 52 53 54 54 54 53 50 50 48 47 47 48 49 51 51 52 52 54 55 55 56
44 44 45 47 47 47 47 46 46 46 46 45 46 47 45 46 48 50 51 52 51 52 51 50 49 49 49 50 51 53 53 53 54 55 55 56 57 58
40 41 42 42 42 42 42 42 41 40 39 39 40 42 44 43 44 46 48 50 50 51 51 51 51 52 53 53 53 54 55 55 56 56 56 57 57 58
37 37 38 38 38 37 37 36 35 35 35 35 34 34 36 39 41 43 45 47 49 50 51 52 53 53 53 53 53 54 54 54 54 55 55 56 58 59
35 35 35 35 34 33 33 32 30 29 30 30 29 29 31 34 36 38 41 44 45 48 49 50 51 52 52 53 53 53 54 54 55 56 57 58 59 61
33 32 32 31 30 30 29 28 26 25 25 25 26 27 29 32 34 36 38 40 43 45 47 49 51 52 53 54 55 55 56 57 58 58 59 60 61 62
30 29 29 28 28 27 26 25 24 24 24 24 24 26 27 29 31 34 37 39 42 44 47 49 51 52 54 55 56 57 57 58 59 59 59 60 61 62
27 28 27 27 27 26 26 26 25 25 24 25 25 26 28 30 32 34 36 39 42 45 47 49 51 53 55 56 57 57 58 58 58 58 58 58 58 58
27 27 27 27 27 26 26 26 26 26 26 26 27 29 30 32 34 37 39 42 44 47 49 51 53 54 56 57 57 58 57 57 57 57 56 56 56 56
27 27 27 27 27 27 28 28 28 28 29 30 31 32 34 36 38 40 42 45 47 49 51 52 54 55 56 57 57 56 56 55 54 54 53 53 53 52
28 28 28 28 29 29 30 30 31 32 32 33 34 36 37 39 41 43 45 47 50 52 53 54 55 55 54 55 55 54 54 53 52 51 50 49 48 47
29 29 30 30 31 31 32 33 34 35 36 37 38 39 41 43 45 47 49 50 52 53 54 54 54 54 53 52 52 52 51 50 49 48 47 45 44 43
30 31 32 33 33 34 35 35 36 37 39 40 41 43 45 46 48 50 51 52 53 54 54 54 53 52 51 49 48 48 48 47 46 45 44 43 42 41
32 33 34 34 35 36 37 38 39 40 42 43 45 46 47 49 50 51 52 53 54 54 53 52 51 49 48 47 45 45 45 44 44 43 42 41 41 41
34 34 35 36 37 38 39 41 42 43 44 46 48 49 50 51 52 53 53 54 53 53 52 50 49 47 46 44 43 42 43 42 42 42 40 40 40 40
35 36 37 38 39 40 41 43 44 46 47 49 50 51 52 54 54 55 54 54 52 51 51 50 48 46 44 42 41 41 41 41 41 40 39 37 38 39
36 37 38 39 40 42 43 45 47 48 50 51 52 54 55 55 56 55 54 52 50 49 49 48 47 45 42 40 40 39 40 40 39 39 38 36 36 38
37 38 39 40 42 43 45 47 49 50 51 53 55 56 56 56 56 54 52 50 49 47 46 46 45 43 40 38 37 40 40 39 39 38 38 37 35 37
38 39 40 42 43 45 47 48 50 52 53 55 56 56 56 55 53 51 49 48 46 44 43 43 43 42 40 37 34 36 40 39 38 38 38 37 36 36
39 40 41 43 44 46 48 50 51 53 54 55 56 55 54 52 50 49 47 46 44 42 40 41 42 41 39 37 34 33 37 40 39 37 36 36 35 35
40 41 42 44 46 48 49 51 52 54 55 55 54 53 51 50 49 47 46 44 42 40 39 38 39 39 38 37 35 33 33 37 39 38 37 36 35 33
41 42 44 45 47 49 50 52 53 54 54 54 52 51 50 49 47 46 44 42 40 38 37 36 36 36 36 36 34 33 33 34 36 36 36 37 36 34

GEFSNE_500_meanwind_060.txt.gz
Wind_Speed
44 44 44 43 44 45 46 45 44 43 42 43 44 45 45 45 44 44 42 41 41 41 41 43 44 45 46 47 46 44 43 44 44 44 43 42 43 44
43 43 43 43 44 44 44 43 42 41 40 40 41 41 41 40 40 38 37 36 34 33 35 35 37 39 39 40 44 43 43 43 43 43 43 42 42 43
43 43 43 43 43 43 42 41 41 40 39 38 38 38 37 37 35 33 31 30 29 29 29 30 32 33 35 36 38 39 40 40 42 43 43 43 43 44
41 41 42 42 41 41 40 39 38 37 37 36 36 36 35 33 31 30 28 27 25 24 25 27 28 31 34 35 37 39 41 41 41 42 43 44 45 46
39 40 40 40 39 39 38 37 36 36 35 35 35 34 33 32 30 29 27 26 25 25 25 26 28 30 31 34 36 37 39 41 43 43 44 44 45 46
38 38 38 38 37 36 35 35 34 34 34 34 33 32 31 31 30 29 28 27 26 26 27 28 29 31 32 33 36 38 40 41 43 44 45 46 47 48
36 36 36 36 35 34 34 34 34 34 34 33 32 32 32 31 31 31 30 29 29 29 29 30 31 32 34 35 37 39 41 42 43 44 46 47 48 49
35 35 34 34 33 33 34 33 33 33 33 33 33 33 33 33 32 32 32 32 32 32 33 34 35 36 37 38 40 42 43 45 46 47 48 49 50 51
33 33 33 33 32 33 33 33 33 33 33 33 34 34 34 34 34 34 35 35 35 36 36 38 39 40 41 42 44 45 46 47 48 49 50 51 51 52
32 32 31 31 32 33 33 33 33 34 34 34 35 35 35 36 36 37 37 38 39 39 40 42 43 44 45 46 47 48 49 49 50 51 51 52 53 53
31 31 31 31 32 33 33 34 34 34 35 35 36 37 37 37 38 39 39 40 41 43 44 45 47 48 49 50 50 51 52 52 53 53 54 54 54 53
31 31 32 32 33 33 34 34 35 35 36 37 38 38 39 39 40 41 42 44 45 46 47 48 49 50 51 52 53 54 55 55 55 54 54 53 53 53
31 32 33 33 34 34 35 35 36 37 38 38 39 40 41 41 42 44 45 47 48 49 50 51 52 53 53 53 55 56 56 56 55 53 52 52 51 51
32 33 34 34 35 35 36 37 37 38 39 40 41 42 43 44 45 47 48 50 51 51 52 53 53 54 54 54 54 55 55 55 54 52 51 50 49 48
34 34 35 36 36 37 37 38 38 39 40 41 42 43 44 46 48 50 51 51 52 53 54 54 54 54 53 52 52 52 52 52 52 50 49 48 47 46
35 35 36 37 37 38 38 39 40 41 41 42 43 45 46 48 49 51 52 53 54 54 54 53 53 52 50 49 49 48 49 49 49 49 47 45 45 43
36 37 37 38 38 39 40 41 41 42 43 44 45 46 48 49 51 52 52 53 53 53 53 53 52 50 48 46 45 45 45 45 46 45 44 42 42 42
37 38 38 39 40 40 41 42 42 43 44 45 46 48 49 50 52 53 53 53 52 52 52 52 51 48 45 43 44 43 43 43 42 42 41 39 37 40
38 39 40 40 41 42 42 43 43 44 45 46 48 49 50 52 53 53 53 52 52 51 51 51 49 47 44 41 40 42 41 40 39 38 38 36 35 36
39 40 41 42 42 43 43 44 45 46 46 47 49 50 51 52 53 52 52 52 51 50 49 49 49 46 43 39 36 38 41 40 38 36 36 35 34 34
40 41 42 43 43 44 44 45 46 47 47 48 50 51 52 52 52 52 52 51 50 48 47 47 47 46 42 39 36 34 38 39 37 36 35 34 33 33
42 42 43 43 43 44 45 46 47 48 48 49 50 52 52 52 51 51 51 50 48 47 46 46 45 44 42 40 36 34 34 36 37 35 34 34 32 31
42 43 43 44 44 45 46 47 47 48 49 49 51 52 51 51 51 50 50 49 48 47 46 44 43 42 41 40 36 34 33 33 34 33 33 34 32 31

GEFSNE_500_meanwind_066.txt.gz
Wind_Speed
47 46 45 44 44 43 43 42 42 41 40 40 40 40 39 38 37 37 36 36 35 35 34 33 32 31 30 30 30 30 31 32 33 35 38 39 39 40
46 45 44 43 43 42 42 42 41 40 39 39 38 38 37 36 36 36 35 35 34 33 32 31 29 28 27 27 27 28 28 28 29 31 33 35 37 38
44 43 43 42 41 41 41 39 39 38 38 37 37 36 36 35 35 35 34 34 33 32 31 30 28 27 25 25 25 26 26 26 28 29 31 33 35 36
43 42 41 41 40 40 38 38 37 37 37 36 35 35 34 34 34 34 34 33 32 30 29 29 29 28 27 26 25 25 26 26 27 28 30 32 34 36
41 40 40 39 38 38 37 36 36 36 35 35 34 34 34 33 33 33 33 32 31 31 30 29 29 28 28 28 28 27 28 28 29 31 32 34 35 36
40 39 38 37 36 36 35 35 34 34 34 34 33 33 33 33 33 33 32 32 32 32 31 31 30 30 30 30 30 30 31 31 32 33 34 36 37 39
38 37 36 35 35 34 33 33 33 33 33 33 32 32 33 33 33 33 33 33 33 33 33 33 32 32 32 32 33 33 33 34 35 36 38 39 41 42
35 34 34 33 32 31 31 31 31 32 32 32 32 32 33 33 33 33 34 34 34 34 34 35 35 35 35 35 36 36 37 38 39 40 41 42 43 44
33 32 31 30 30 30 30 31 31 31 32 32 33 33 34 34 34 34 35 35 35 36 36 37 37 37 38 39 39 40 41 42 43 44 45 46 47 48
30 30 30 29 29 30 30 30 31 31 32 33 33 34 34 35 35 35 36 36 37 38 38 39 40 41 41 42 43 43 44 45 46 47 48 49 50 51
29 29 29 29 30 30 30 31 31 32 32 33 34 34 35 35 36 37 37 38 39 39 40 41 42 43 44 44 45 46 47 48 49 50 51 52 52 53
29 29 29 29 30 30 31 31 32 33 33 34 35 35 36 37 37 38 39 40 40 41 42 43 44 45 46 47 48 48 49 50 50 51 52 52 53 54
29 29 29 30 30 31 31 32 33 33 34 35 36 36 37 38 39 40 41 41 42 43 44 45 46 47 47 48 49 50 50 50 51 51 50 50 51 52
30 30 30 31 31 32 32 33 34 35 36 36 37 38 39 40 41 42 42 43 44 45 46 46 47 48 49 49 50 50 51 50 50 50 49 48 48 48
31 31 31 32 32 33 33 34 36 36 37 38 39 40 41 41 42 43 44 45 46 46 46 47 48 48 49 49 49 50 50 50 50 49 47 47 46 46
32 32 33 33 34 35 36 36 37 38 39 40 41 41 42 42 43 44 45 46 46 47 47 48 48 49 49 49 49 49 49 49 48 47 45 45 44 44
33 34 34 35 36 37 38 38 39 40 40 41 42 42 43 44 45 45 46 47 47 48 49 49 49 49 49 49 48 48 48 48 46 45 44 43 43 42
34 35 36 37 38 38 39 39 40 41 42 42 43 43 44 45 46 46 47 47 48 49 50 50 49 48 48 47 48 48 48 47 45 44 43 41 40 41
36 37 37 38 39 40 40 41 42 42 42 43 43 44 45 46 47 47 48 48 48 49 50 50 49 47 46 46 47 48 47 46 44 42 41 38 37 38
37 38 39 39 40 40 41 41 42 42 42 43 43 44 45 46 47 48 48 48 48 48 49 49 48 47 46 45 45 46 47 45 43 41 40 37 35 36
38 39 40 40 40 40 41 41 42 42 43 43 45 46 47 47 48 47 47 47 48 48 48 48 48 47 46 45 44 43 45 44 42 40 38 36 34 34
39 40 40 40 41 41 41 42 42 43 43 44 45 46 47 47 47 47 47 48 48 48 47 48 48 47 46 45 43 42 42 42 41 39 38 36 33 31
40 41 41 41 41 42 42 42 43 43 44 45 45 46 46 46 46 46 47 47 48 48 48 48 47 47 46 45 43 41 40 40 40 38 38 37 34 32

GEFSNE_500_meanwind_072.txt.gz
Wind_Speed
48 48 47 47 47 47 46 46 46 44 43 43 42 41 41 40 38 36 35 34 33 32 31 30 30 30 30 29 29 29 28 27 26 25 25 25 25 26
48 48 48 48 48 47 47 46 45 44 43 42 41 41 39 38 36 35 34 33 32 31 30 30 30 29 29 28 28 27 26 26 25 24 23 23 24 24
49 48 48 47 47 47 46 45 44 43 42 41 40 39 37 36 35 34 33 32 31 30 30 29 29 29 28 28 27 26 26 25 25 25 24 25 25 25
49 49 48 47 47 46 44 43 43 42 40 39 38 36 35 34 33 32 31 31 30 29 29 29 29 28 28 27 27 27 27 26 26 26 26 26 26 26
49 48 47 46 45 44 43 42 41 40 39 37 36 35 34 33 32 31 30 30 29 29 29 29 29 29 28 28 28 28 28 28 28 27 28 27 28 27
47 46 45 45 44 43 42 41 39 37 36 35 34 33 32 31 30 30 30 30 29 29 29 29 29 29 29 30 30 30 30 30 30 29 29 29 30 30
44 44 43 42 41 40 39 38 36 35 34 33 32 32 31 30 30 30 30 30 30 30 30 30 30 30 31 31 32 32 32 32 32 32 32 32 32 33
42 41 40 39 38 37 35 34 33 32 32 32 31 31 30 30 30 30 30 30 30 30 31 31 31 32 33 33 33 34 34 34 35 35 35 36 36 36
39 39 38 37 36 34 33 33 32 31 31 31 31 31 31 30 30 30 30 30 31 31 32 32 33 34 34 35 35 35 36 37 37 38 38 39 39 40
37 36 35 33 33 32 32 31 31 31 31 31 31 31 30 30 31 31 31 32 32 33 33 34 35 35 36 36 37 38 38 38 39 40 40 41 42 42
33 32 31 31 30 30 30 30 31 31 31 31 31 31 31 31 31 32 32 33 34 35 35 36 37 37 38 38 39 39 40 40 41 41 42 43 43 43
30 30 30 29 29 29 30 30 31 31 31 31 31 31 32 32 33 34 34 35 36 37 37 38 39 39 40 40 41 41 42 42 42 43 43 44 44 45
30 30 30 29 29 30 30 30 31 31 32 32 32 33 34 34 35 35 36 37 38 38 39 40 40 41 41 42 42 43 43 43 43 44 44 45 45 45
29 29 29 29 30 30 31 31 32 32 32 33 34 34 35 35 36 37 38 39 39 40 40 40 41 41 42 42 43 44 44 44 44 45 45 45 45 45
28 29 29 29 30 31 32 32 33 33 34 34 35 36 37 37 38 38 39 40 40 41 41 41 42 42 42 43 44 45 45 46 46 45 45 44 45 45
29 30 30 31 32 33 33 33 34 35 35 36 37 37 38 39 39 39 40 40 41 41 42 42 42 42 43 44 45 45 45 45 45 44 44 44 45 45
31 31 32 32 33 33 34 34 35 36 36 37 38 39 39 39 40 40 41 41 41 42 42 43 43 44 44 45 45 45 45 45 44 44 43 43 44 44
31 32 33 33 34 35 35 36 36 37 38 38 39 39 40 40 41 41 41 42 42 43 43 44 44 44 44 44 45 44 45 44 44 43 43 42 42 44
32 33 33 34 35 36 36 37 38 38 39 40 40 41 41 41 41 41 42 42 43 43 44 44 44 44 42 42 43 45 45 45 44 43 43 42 41 42
33 34 35 36 36 37 37 38 39 39 40 40 40 41 41 41 42 42 42 42 43 43 44 44 44 43 42 41 42 44 46 45 44 44 44 43 41 41
34 35 36 36 37 38 39 39 39 40 40 41 41 41 42 42 42 43 43 42 42 43 43 44 44 44 43 43 43 44 46 47 46 44 44 42 40 40
36 37 38 39 39 39 40 40 40 41 41 41 42 42 42 42 42 42 42 42 42 43 44 44 45 45 45 45 45 45 46 47 47 45 44 43 40 38
38 38 39 39 39 40 40 40 40 41 41 41 42 42 42 41 42 41 42 43 43 44 44 45 46 46 47 47 47 46 46 46 46 44 44 44 42 40

GEFSNE_500_meanwind_078.txt.gz
Wind_Speed
50 50 49 49 48 47 47 46 46 45 44 44 44 44 44 43 42 41 40 38 37 35 34 31 30 29 28 27 26 26 26 26 26 26 26 25 24 24
50 50 49 49 48 48 47 47 47 46 45 45 45 45 44 43 42 40 39 37 36 34 33 31 30 29 27 26 26 25 26 26 25 25 25 24 24 24
50 50 50 49 49 48 48 48 47 47 47 46 45 44 43 42 41 39 38 36 35 33 32 30 29 28 27 26 26 26 26 25 25 24 24 24 24 25
50 50 50 50 49 48 48 48 48 47 46 45 44 43 42 40 39 38 36 35 33 32 30 29 29 28 27 27 26 26 26 25 25 25 25 25 25 26
49 49 49 48 48 47 47 47 46 45 44 43 42 41 39 39 37 36 35 33 31 30 30 29 28 28 27 27 26 26 26 25 25 26 26 27 27 27
47 47 47 46 46 45 45 44 44 43 42 41 40 39 38 36 35 33 32 31 30 30 29 29 28 28 27 27 27 26 26 26 27 27 28 28 28 28
45 45 45 44 44 43 43 42 41 40 39 38 37 36 35 34 32 31 31 30 30 30 29 29 29 28 27 27 27 27 28 28 28 29 29 30 30 30
44 43 43 42 42 41 40 39 38 38 37 36 35 34 33 32 31 30 30 30 30 30 29 29 28 28 28 28 28 29 29 29 30 30 31 31 32 33
42 41 40 40 39 39 38 37 36 35 34 34 33 32 31 30 30 30 30 30 29 29 29 28 28 29 29 29 30 30 31 31 32 33 33 34 34 35
40 39 39 38 38 37 36 35 34 34 33 32 31 30 30 29 29 30 30 29 29 29 29 29 29 30 31 31 31 32 33 33 34 35 35 36 37 37
37 37 36 36 35 35 34 33 33 32 31 30 29 29 29 29 29 29 29 29 29 29 29 30 31 31 32 32 33 33 34 35 35 36 36 37 38 38
34 34 34 33 33 32 32 31 30 30 29 29 29 29 29 29 29 29 29 29 30 30 30 31 31 32 32 33 34 34 35 35 36 37 37 38 39 40
32 31 31 30 30 30 30 30 29 29 28 28 29 29 29 29 29 29 29 30 30 31 31 32 32 33 33 34 35 35 36 36 37 38 38 39 40 41
30 29 29 29 29 29 29 29 28 28 28 28 28 28 29 29 29 30 30 31 31 32 32 32 33 34 35 35 36 36 37 37 38 39 39 40 41 42
29 28 28 28 28 28 28 28 28 28 28 29 29 30 30 30 30 30 31 32 32 33 33 34 35 35 36 37 38 38 38 39 39 40 41 41 42 42
28 28 28 28 28 28 28 28 28 29 29 29 30 30 30 31 31 32 33 33 34 34 35 35 36 37 38 38 39 39 40 40 40 40 41 41 42 42
28 28 28 28 28 28 29 29 29 30 30 30 30 31 32 32 33 34 34 35 36 36 36 37 38 38 39 39 40 40 41 41 41 41 41 41 41 41
28 28 28 29 29 30 30 30 30 31 31 31 32 33 33 34 35 35 36 36 37 37 38 39 39 39 39 40 40 41 41 41 41 40 40 40 41 41
30 30 30 30 31 31 31 31 32 32 33 33 34 34 35 35 36 37 37 38 38 39 39 40 40 40 40 40 41 42 41 41 41 41 40 40 41 42
31 32 32 32 32 32 33 33 33 34 35 36 36 36 37 37 38 38 38 39 39 40 40 40 40 40 40 40 41 42 41 41 41 41 41 41 42 43
33 33 33 34 34 34 34 35 35 36 37 37 38 38 38 38 38 39 39 39 39 40 40 40 40 39 39 40 40 41 42 42 42 42 42 42 42 43
34 35 35 36 36 36 36 37 37 38 38 38 38 38 38 38 39 39 39 39 39 39 39 40 40 40 40 40 41 42 43 44 44 44 44 44 43 43
35 35 36 36 37 37 38 38 38 38 38 38 38 38 38 38 39 39 39 39 39 39 39 40 40 40 41 42 42 42 43 44 45 45 45 46 45 43

GEFSNE_500_meanwind_084.txt.gz
Wind_Speed
50 50 50 51 50 50 50 50 50 49 48 48 48 47 47 46 45 45 44 43 42 41 39 38 37 35 33 32 31 30 29 28 27 26 25 24 24 24
51 51 51 51 51 51 51 51 51 50 49 48 47 47 47 46 46 45 44 43 41 40 38 37 36 34 32 31 30 29 28 27 26 26 25 24 24 23
51 51 52 52 52 51 51 51 50 50 49 48 47 47 47 46 45 44 43 41 40 39 37 36 35 33 31 30 28 28 27 27 26 25 25 24 24 23
51 51 51 51 51 51 50 50 49 49 48 47 46 46 46 45 43 42 41 39 38 36 35 34 33 31 29 28 28 27 26 26 26 25 25 24 24 24
51 51 50 50 50 49 49 48 48 47 46 45 44 44 43 42 41 40 38 37 36 34 33 32 30 29 28 28 27 26 26 26 25 25 25 24 24 24
48 48 48 48 48 48 47 46 46 45 44 44 42 42 41 40 39 38 37 36 34 33 32 30 29 29 28 27 27 26 26 26 25 25 25 24 24 24
47 47 48 48 47 46 46 45 45 44 43 42 41 40 39 38 37 37 35 34 33 32 30 29 28 28 27 27 27 26 26 26 25 25 24 24 24 25
46 46 45 45 45 45 44 44 43 42 41 40 39 38 37 36 35 35 33 32 31 30 29 28 27 27 27 27 26 26 26 25 25 25 25 25 26 26
44 44 44 43 43 42 42 41 41 40 39 38 37 36 35 34 33 33 32 31 30 29 28 28 27 27 27 27 26 26 25 25 25 25 25 26 27 28
44 44 43 42 41 41 40 39 38 37 36 35 34 34 33 32 32 31 30 30 29 29 28 28 27 27 26 26 26 26 26 26 26 26 27 27 28 29
44 43 42 41 40 39 37 36 35 34 34 33 32 32 31 30 30 30 29 29 28 28 27 27 26 26 26 26 26 26 26 27 27 28 28 29 29 30
43 42 41 40 38 37 36 34 33 32 32 31 30 30 29 29 29 29 28 28 28 27 27 26 26 26 26 27 27 27 27 28 28 29 30 30 31 32
41 40 38 37 35 34 34 32 31 31 30 29 29 29 28 28 28 28 28 27 27 27 27 27 27 27 27 28 28 28 29 29 30 31 31 32 32 33
39 37 36 34 34 33 32 32 31 30 29 29 28 28 27 27 28 27 27 27 27 27 28 28 28 29 29 29 30 30 31 31 32 32 33 34 34 35
37 36 35 33 33 32 32 31 30 30 29 29 28 27 27 27 27 27 28 28 28 28 29 29 29 30 30 31 31 32 32 33 33 33 34 35 36 37
36 34 34 33 32 31 31 30 30 29 29 28 28 28 27 28 28 28 29 29 29 29 30 30 31 31 32 32 33 34 34 34 35 35 36 37 38 38
35 34 33 33 32 32 31 30 30 29 30 29 29 29 29 30 30 30 30 31 31 31 31 32 33 33 34 34 35 35 36 36 36 37 37 39 39 40
34 33 33 33 32 32 31 31 30 30 30 30 30 30 31 31 31 31 32 32 33 33 33 34 34 35 35 36 37 37 38 38 38 38 38 39 40 40
33 33 33 33 32 32 32 32 31 31 31 31 32 32 32 33 33 33 34 34 34 35 35 35 36 36 37 38 38 39 39 39 39 38 38 39 39 40
33 33 33 33 33 33 33 32 32 32 32 32 32 33 33 34 34 35 35 35 35 36 36 37 37 37 37 37 38 39 39 39 38 38 38 39 39 40
33 33 33 33 33 33 32 32 32 32 32 32 32 33 34 34 35 36 37 37 37 37 37 37 37 37 37 37 37 38 39 38 38 38 38 38 39 40
33 33 34 34 33 33 33 33 33 33 33 33 34 34 35 36 36 37 37 37 37 37 37 38 38 37 37 37 38 38 39 39 39 39 39 39 40 40
34 34 34 34 34 34 34 34 35 35 35 35 35 36 37 37 37 37 37 37 37 37 38 38 38 38 38 38 38 39 39 40 40 40 41 41 41 41

GEFSNE_500_meanwind_090.txt.gz
Wind_Speed
41 42 43 44 45 45 46 47 47 47 46 47 48 48 49 48 48 47 46 46 46 45 44 43 42 41 40 38 37 36 35 34 33 32 31 30 29 28
44 44 45 46 46 47 47 47 47 47 47 47 48 48 48 47 47 46 45 45 44 44 43 42 41 39 38 36 36 35 34 32 32 31 30 29 29 28
45 45 46 46 46 47 47 47 47 48 47 47 47 47 46 46 45 44 44 43 42 42 41 40 38 37 36 35 34 33 32 31 30 30 29 28 28 29
47 46 46 46 47 47 47 47 47 46 46 45 45 45 45 44 44 43 43 42 41 40 39 38 37 35 34 33 32 31 31 30 29 29 28 27 28 28
46 46 46 46 46 46 46 45 45 45 45 44 44 43 43 43 43 42 41 41 40 38 37 36 35 34 32 32 31 30 30 29 28 27 27 27 27 27
45 45 45 45 45 44 44 44 44 44 43 43 43 42 42 42 41 41 40 39 38 37 36 34 33 31 30 29 29 29 28 27 27 27 27 27 27 27
45 44 44 44 43 43 43 43 43 42 42 42 42 41 41 40 39 38 38 37 36 35 33 32 31 30 29 28 28 27 27 27 27 26 26 27 27 27
44 44 43 43 43 43 42 42 42 41 41 41 41 40 39 38 37 36 35 34 33 32 31 30 29 28 28 27 26 25 25 25 25 25 26 26 26 26
44 44 43 43 42 42 42 42 41 41 40 40 39 38 37 36 35 34 33 32 31 30 29 28 27 27 27 26 25 25 25 25 25 25 26 26 26 26
45 44 43 42 42 42 41 41 41 40 39 38 38 36 35 35 34 33 32 31 30 29 28 27 26 26 26 25 25 25 25 25 25 25 26 26 26 26
45 44 44 43 42 41 41 41 40 39 38 37 36 35 34 33 32 31 30 30 29 27 27 26 25 25 25 25 25 25 24 24 24 25 25 25 26 27
45 44 44 43 42 41 41 40 39 38 37 35 34 33 32 32 31 30 29 28 27 26 26 25 24 24 24 24 24 24 24 24 24 25 25 26 26 27
45 44 43 42 41 41 40 39 38 37 36 35 34 32 31 31 30 29 28 27 26 25 25 24 24 24 24 24 24 24 25 25 25 26 26 27 27 28
44 43 42 41 40 39 39 38 38 36 35 34 33 32 31 30 30 29 27 26 26 25 25 24 24 24 24 25 25 25 26 26 26 27 28 29 29 30
43 42 41 40 39 39 38 38 37 36 35 34 33 32 30 30 29 28 27 27 26 26 25 25 25 25 26 26 26 27 27 27 28 28 29 30 30 31
43 42 41 40 39 39 38 37 36 35 34 33 32 31 30 29 29 28 27 27 27 26 26 26 26 27 27 27 28 28 29 29 29 30 30 31 32 32
43 42 41 41 40 38 37 36 36 35 34 32 32 31 30 29 29 29 28 28 27 27 27 27 28 28 28 29 29 30 30 30 31 31 31 32 33 33
43 42 41 40 39 38 37 36 35 34 34 33 32 31 31 30 29 29 29 29 29 29 28 28 29 29 30 30 31 31 32 32 32 32 33 33 34 35
43 42 41 40 39 38 37 37 35 35 34 33 33 32 31 31 30 30 30 30 29 29 29 30 30 31 32 32 32 33 33 33 34 34 34 35 36 37
42 41 41 40 39 39 38 37 36 35 34 33 33 32 32 32 32 31 31 31 31 31 31 32 32 33 33 33 34 35 35 35 35 35 36 36 37 38
41 40 40 40 39 38 38 37 36 35 34 34 33 33 33 33 32 32 32 32 32 32 33 33 33 33 34 35 35 36 36 36 36 36 36 37 37 37
40 40 39 39 38 38 37 37 36 35 35 34 34 34 33 32 32 32 33 33 33 33 34 34 35 35 35 35 36 37 37 37 37 37 37 38 38 38
41 40 39 39 38 37 37 36 36 35 35 34 34 33 33 33 33 33 34 34 34 35 35 36 36 36 36 37 37 38 38 38 37 37 38 38 38 38

GEFSNE_500_meanwind_096.txt.gz
Wind_Speed
44 43 42 40 39 38 37 37 37 38 39 40 41 42 43 44 46 47 48 48 48 48 48 48 48 47 46 44 43 41 40 38 36 34 33 32 31 30
44 43 41 40 39 38 39 40 40 40 41 42 43 44 45 46 47 47 48 48 48 48 48 47 47 46 44 43 42 40 38 36 34 33 32 31 31 30
43 42 41 40 40 40 41 41 42 42 43 44 45 46 47 48 48 47 47 47 47 47 47 47 46 44 43 42 40 38 36 35 33 32 31 31 30 29
44 43 42 43 43 43 43 44 45 45 46 46 46 47 47 47 46 46 46 46 46 46 46 45 43 41 40 39 38 36 35 33 32 31 30 29 29 28
43 44 44 44 44 45 45 46 47 47 47 47 47 46 46 45 45 45 45 45 45 44 43 42 41 40 39 37 36 34 33 31 30 29 28 27 26 26
45 46 46 46 46 46 46 47 47 47 48 47 46 45 45 45 45 44 43 43 42 42 41 41 39 38 37 35 34 32 31 29 28 28 26 25 25 25
48 48 48 48 47 48 48 47 47 47 47 46 45 45 44 44 43 43 42 41 41 40 39 38 38 36 35 34 32 30 29 28 27 26 25 24 24 24
49 49 50 50 49 48 48 47 46 46 46 45 45 44 44 44 43 42 41 40 40 40 39 37 36 34 33 31 30 28 27 26 25 24 24 23 23 23
50 50 50 49 49 48 47 47 46 46 46 45 45 44 44 43 42 41 40 40 39 38 37 35 34 33 31 30 28 27 26 25 24 23 22 22 23 23
51 50 49 49 49 49 47 47 46 46 45 45 44 44 44 43 42 40 40 39 38 37 36 34 32 31 30 28 27 26 25 24 23 22 22 22 23 23
51 51 51 50 49 49 48 48 47 46 45 45 44 44 43 42 41 40 39 38 37 36 34 32 31 30 29 28 26 25 24 24 23 23 22 22 23 23
52 51 51 50 50 49 48 48 48 46 46 45 44 43 42 41 40 39 38 37 36 35 33 32 30 29 28 27 26 25 24 23 23 22 22 22 22 23
53 52 51 50 50 49 49 48 47 46 45 44 43 42 41 40 39 38 37 36 35 34 32 31 30 28 27 26 25 24 24 23 22 22 22 22 22 23
53 52 52 51 50 49 49 47 46 45 44 43 42 41 40 39 38 37 36 35 34 33 32 30 29 28 27 26 24 23 23 22 22 22 21 22 22 23
52 53 52 52 51 49 49 47 46 45 43 42 41 41 39 38 37 36 35 34 33 32 31 30 28 27 26 25 24 23 23 22 22 22 22 22 23 24
52 52 51 51 51 49 48 47 46 45 44 42 41 40 39 38 36 36 35 34 32 32 30 29 28 27 27 26 25 25 24 24 24 24 24 24 25 25
52 51 50 49 48 48 47 47 45 44 43 41 40 40 39 37 36 35 34 33 32 31 30 29 28 27 27 26 26 25 25 25 25 25 25 26 26 27
51 50 50 49 48 47 46 45 44 43 41 40 39 39 38 37 36 35 34 33 32 31 30 29 28 27 27 27 26 26 26 26 26 26 27 27 28 28
50 49 48 47 46 45 44 43 43 42 40 39 39 38 37 36 35 34 33 33 32 31 30 29 28 28 27 27 27 27 27 27 27 28 28 28 29 30
49 48 47 46 44 43 42 42 42 41 40 39 39 38 37 36 35 34 34 33 32 31 31 30 30 29 28 28 28 28 28 28 28 29 29 30 31 32
48 46 46 44 44 42 41 41 40 40 39 39 38 37 36 35 35 34 34 33 33 32 31 31 31 30 29 29 29 30 30 30 30 30 30 31 32 33
46 46 45 44 43 42 41 41 40 39 38 38 37 36 36 35 35 34 34 33 33 33 32 32 31 31 30 30 30 31 31 31 31 31 31 31 32 33
44 44 44 44 43 41 41 40 39 38 37 37 36 36 35 35 34 34 34 33 33 33 33 32 32 31 31 31 31 32 32 32 32 32 33 33 34 34

GEFSNE_500_meanwind_102.txt.gz
Wind_Speed
46 46 45 45 46 46 46 46 46 46 47 47 47 47 46 45 45 45 44 44 44 44 44 45 45 46 47 47 47 47 46 44 42 41 39 37 34 32
47 47 48 48 47 48 48 48 49 49 49 47 47 45 45 45 45 46 46 45 45 45 46 46 46 47 46 47 46 46 45 43 41 39 37 35 33 31
48 48 48 48 48 49 50 50 51 51 49 47 47 47 47 46 46 46 47 47 47 47 47 47 47 47 46 46 45 45 43 41 39 37 35 34 32 29
48 48 48 49 50 51 52 51 50 50 49 50 49 49 48 48 48 48 48 49 48 48 47 47 47 46 46 45 44 43 41 39 37 36 34 33 30 29
51 51 52 53 53 53 53 51 51 50 50 51 51 50 50 50 50 50 50 49 49 48 48 48 47 45 44 43 42 41 40 38 37 35 33 31 30 28
52 53 52 52 52 53 53 52 52 52 52 52 51 51 51 51 51 51 50 49 48 48 48 47 45 44 43 41 41 40 39 37 35 33 31 30 28 27
50 51 52 53 53 53 54 54 54 54 53 53 53 52 51 51 51 51 50 49 48 47 47 45 44 43 42 41 40 39 37 35 33 32 30 28 27 26
52 54 54 55 56 56 57 57 57 56 56 56 55 54 53 52 52 51 49 48 47 47 46 44 43 42 41 40 39 38 36 34 32 31 29 27 26 25
54 55 55 57 58 58 59 60 59 59 58 57 56 56 54 53 52 50 49 48 47 46 45 44 43 42 41 40 38 37 35 33 31 30 28 27 25 24
56 57 57 58 60 60 61 61 60 60 59 58 57 56 54 53 52 51 50 48 47 46 45 43 42 41 40 38 37 35 33 32 30 29 27 25 24 23
59 59 60 60 61 62 62 62 62 61 61 59 58 55 53 52 51 50 49 48 46 45 44 42 42 41 39 37 35 33 32 31 30 28 27 25 24 23
60 60 61 62 63 63 63 62 62 61 60 59 58 56 54 52 51 49 48 47 46 44 43 42 41 39 37 36 34 32 31 30 29 28 26 25 24 24
61 61 61 62 63 63 62 61 61 60 59 58 57 56 54 52 50 49 48 46 45 44 42 41 39 38 36 34 33 31 30 29 28 27 26 25 24 24
61 61 60 61 62 62 62 61 60 59 58 57 56 55 53 52 51 49 48 47 45 43 42 40 38 37 35 33 32 31 30 29 28 27 26 25 24 24
61 60 60 60 60 60 61 61 60 58 57 56 55 54 52 51 50 48 47 45 44 42 41 39 37 36 34 33 32 31 30 29 28 27 26 25 24 24
60 60 59 59 58 58 59 59 59 58 57 56 55 53 51 50 48 47 45 44 43 42 40 38 37 35 34 33 32 31 30 29 28 27 26 26 25 24
59 59 58 57 57 57 57 57 56 55 55 54 53 52 51 49 47 45 44 44 42 41 39 37 36 35 34 33 32 31 30 29 28 28 27 26 26 25
56 55 55 55 54 54 55 55 54 52 52 51 50 49 48 47 46 45 43 42 41 39 38 37 36 34 34 33 32 31 30 30 29 28 27 27 26 26
52 51 51 52 52 51 52 52 53 51 50 49 48 46 45 45 44 43 41 41 40 39 37 36 35 34 34 33 32 32 31 30 29 29 28 28 28 27
49 48 48 48 48 49 49 49 49 49 48 46 45 44 43 42 42 42 41 40 39 38 37 36 35 35 34 33 32 32 32 31 30 30 29 29 29 29
45 45 45 45 45 46 46 46 47 47 46 44 42 41 41 41 40 40 39 38 37 37 36 36 36 35 34 33 33 33 32 31 31 30 30 30 30 30
41 42 42 43 43 44 44 44 45 44 43 42 42 41 41 40 39 38 37 36 36 36 36 35 34 34 33 33 33 33 32 31 31 31 31 31 31 31
36 38 39 40 41 42 42 42 41 41 41 41 40 40 39 39 38 37 37 36 36 35 34 34 33 33 33 33 33 33 32 32 31 32 32 32 32 32

GEFSNE_500_meanwind_108.txt.gz
Wind_Speed
52 51 50 48 47 48 50 50 49 49 48 47 47 47 47 47 46 47 47 47 47 46 46 47 47 47 47 47 46 46 46 46 46 45 44 43 42 40
50 50 50 49 50 50 50 51 51 51 49 48 49 48 47 48 48 48 48 49 49 49 48 48 47 47 47 47 47 46 46 46 46 45 44 42 41 39
48 50 51 51 51 51 52 53 52 52 52 51 50 49 49 50 50 50 50 50 51 51 50 49 48 48 48 48 48 47 47 46 46 45 43 42 41 38
48 49 51 51 52 53 55 55 54 53 53 52 52 52 51 51 51 52 51 52 53 52 52 51 50 50 49 49 48 47 47 46 45 44 42 41 39 37
48 50 51 52 53 54 55 55 55 54 55 54 53 53 52 52 53 53 53 54 54 54 53 52 51 51 49 48 47 47 47 45 44 43 41 40 38 36
48 51 52 53 54 55 56 56 56 56 57 56 55 54 55 55 55 55 55 55 55 54 54 53 52 51 50 48 48 47 46 44 42 41 40 39 38 35
50 52 53 53 55 56 57 58 58 59 59 59 58 57 57 58 58 58 57 55 55 55 54 54 52 50 49 48 47 46 44 42 41 40 39 38 36 34
51 53 54 56 58 58 60 60 61 60 60 60 60 60 59 59 60 59 57 56 55 55 54 53 52 50 49 48 46 44 42 41 40 39 38 37 35 33
54 56 57 59 61 61 62 62 63 63 63 62 62 61 60 60 60 60 59 59 57 56 55 54 53 51 49 47 45 43 42 40 40 39 37 35 33 31
57 59 61 62 63 64 64 65 65 65 66 65 64 63 63 64 63 61 61 61 60 58 56 54 53 51 50 48 45 43 41 40 39 37 35 34 32 30
62 64 65 66 67 68 68 69 68 69 69 68 67 67 67 66 64 63 62 61 59 58 57 54 52 50 48 45 44 42 40 39 38 36 34 32 31 29
64 65 66 67 68 69 70 70 69 69 69 69 69 68 67 66 65 63 61 60 58 56 55 53 51 48 46 44 42 41 40 38 37 35 33 31 30 28
66 67 68 69 69 69 69 69 69 70 71 71 70 68 66 65 64 62 60 58 56 54 52 50 48 47 45 44 42 41 39 37 35 34 32 31 30 28
67 68 68 68 69 68 68 68 69 70 69 69 68 66 64 62 61 60 59 58 57 55 52 50 48 46 44 42 40 39 38 36 34 33 32 31 29 28
65 65 65 65 65 65 65 66 67 67 67 66 64 62 60 59 58 58 58 56 54 52 50 48 46 44 42 40 39 38 37 35 33 32 31 30 29 29
64 63 62 62 61 61 61 63 64 64 63 62 61 60 59 58 56 55 54 52 50 48 47 45 44 43 41 39 38 37 35 33 32 31 31 30 29 29
62 61 59 58 58 58 58 59 59 59 58 58 57 57 56 54 53 51 50 49 47 46 45 44 43 42 41 40 39 37 35 33 32 31 31 30 29 29
60 58 57 56 55 55 55 54 54 53 53 53 52 51 51 50 48 47 46 45 45 45 44 43 42 41 39 38 37 36 34 33 32 31 31 30 30 29
57 55 54 53 52 51 50 49 48 48 48 47 47 46 46 45 44 43 42 42 42 42 42 41 40 39 37 37 36 35 33 32 32 32 32 31 30 30
53 52 51 50 49 47 45 43 42 42 42 42 42 42 41 41 41 40 39 39 38 38 38 37 37 37 37 36 35 34 33 33 32 32 32 31 30 29
47 46 45 43 41 40 38 37 37 37 38 38 38 38 38 38 38 37 37 37 37 37 37 36 36 36 36 35 34 34 34 33 32 32 32 31 30 30
42 40 38 36 35 34 33 33 33 34 34 34 33 35 36 36 35 35 35 35 36 36 36 35 35 35 34 34 34 34 33 32 32 32 32 31 30 30
36 34 32 31 30 30 30 29 29 29 29 30 31 32 33 33 33 34 34 34 34 34 34 34 34 35 34 34 33 33 32 32 32 32 32 31 31 30

GEFSNE_500_meanwind_114.txt.gz
Wind_Speed
53 53 53 54 52 52 52 52 51 51 50 49 49 50 51 52 51 50 50 49 49 48 47 47 46 45 43 42 41 40 40 39 39 40 39 38 37 36
54 54 54 54 54 53 53 53 53 53 53 52 52 52 52 53 53 52 51 50 50 49 49 47 47 47 46 45 43 42 41 41 40 40 39 37 36 36
53 53 55 54 54 53 53 55 55 55 57 56 55 53 53 53 54 53 52 52 51 50 49 49 48 47 47 46 45 43 42 42 41 40 40 38 38 37
51 51 52 52 52 52 54 56 57 58 59 58 57 56 56 56 56 56 55 54 53 52 51 51 50 49 48 47 45 44 43 43 43 42 41 40 38 38
50 50 51 52 53 54 56 57 58 59 60 59 58 57 58 58 58 58 56 55 54 53 52 51 51 50 48 47 46 45 45 44 44 44 43 41 39 38
49 51 52 54 55 55 56 57 58 57 58 59 59 59 59 59 59 58 56 55 55 54 53 52 51 50 49 48 47 47 47 46 45 45 44 41 39 39
49 51 53 54 55 56 57 58 58 59 60 60 60 60 60 60 60 59 58 58 57 56 56 54 53 53 52 51 50 50 49 48 47 46 44 42 40 39
50 51 52 53 55 55 56 58 59 60 61 61 62 62 62 62 62 62 62 61 60 58 58 57 57 56 55 53 52 51 50 49 49 47 45 43 41 39
49 51 53 54 55 57 58 60 60 61 62 63 64 63 64 64 64 64 64 64 62 61 61 60 59 59 58 56 54 52 52 51 50 48 46 43 41 40
50 52 54 56 58 59 61 62 62 63 65 66 67 66 66 66 66 66 65 65 65 64 63 63 61 60 59 58 56 54 52 51 49 48 46 43 42 40
51 54 56 58 60 62 64 65 66 67 67 68 69 69 68 68 69 69 69 68 67 66 65 64 61 60 59 57 56 55 54 52 50 48 46 44 42 39
54 55 58 60 62 64 65 66 67 67 67 67 68 69 68 69 69 69 69 69 68 66 65 64 63 62 61 59 57 56 54 52 50 48 45 43 41 40
56 58 60 62 64 66 67 67 67 67 67 67 67 67 68 68 67 67 67 67 67 66 64 63 62 61 60 59 57 55 53 51 49 47 45 43 41 40
59 60 61 63 65 66 67 68 67 67 66 67 67 67 68 68 67 66 65 65 65 64 62 61 61 60 59 57 55 53 51 49 47 45 43 42 41 39
60 61 62 63 64 65 66 67 67 67 66 66 66 66 66 65 65 64 64 64 63 62 60 60 60 59 57 55 52 51 49 47 45 44 42 41 40 38
59 60 61 62 63 64 64 65 65 65 65 65 64 63 63 62 61 61 60 60 59 58 58 58 57 55 53 51 49 47 45 44 43 43 42 40 39 38
58 59 60 60 61 61 61 61 60 60 60 59 59 58 58 58 58 57 57 56 56 55 54 52 51 50 49 48 46 45 45 44 43 42 41 40 39 37
57 58 58 57 57 57 57 57 56 56 55 55 54 54 54 53 52 51 50 50 50 50 49 49 49 49 48 46 45 44 44 43 41 40 39 39 39 38
55 54 54 54 53 52 52 52 52 51 51 50 48 48 47 46 45 45 45 45 44 44 44 45 45 45 46 44 43 43 42 41 40 39 39 38 38 37
52 51 50 50 49 48 47 46 46 46 45 44 42 41 41 40 39 40 40 41 42 41 41 41 41 41 42 42 42 41 40 39 39 39 38 37 38 37
50 48 47 45 44 43 42 41 40 39 39 38 37 35 36 36 35 34 35 36 38 38 39 39 38 38 38 38 39 39 39 39 38 37 37 37 37 37
46 44 42 40 39 38 38 37 35 34 33 32 32 31 31 31 31 31 30 31 32 33 35 37 37 37 37 37 37 36 37 37 37 37 36 35 36 36
41 38 37 35 34 34 33 32 31 30 29 29 28 27 27 27 27 28 28 29 30 30 32 34 36 36 37 37 37 37 36 35 35 35 35 36 36 36

GEFSNE_500_meanwind_120.txt.gz
Wind_Speed
56 57 56 56 56 55 55 55 54 53 52 50 49 50 50 50 49 49 49 49 49 49 49 48 47 46 46 45 45 44 43 41 41 39 38 36 36 35
54 56 56 55 56 56 57 56 55 54 54 52 52 52 52 52 52 52 51 51 51 51 51 51 50 49 48 47 48 47 45 43 43 41 40 39 39 37
52 53 55 54 54 55 55 56 57 56 55 53 53 54 54 54 55 54 53 53 53 53 53 53 52 51 50 50 50 49 48 46 45 44 42 41 40 39
51 51 52 54 54 54 55 56 56 56 55 55 55 56 57 56 56 55 55 55 55 55 55 55 54 54 53 52 51 51 48 47 46 45 44 42 41 40
48 49 51 52 54 54 54 56 57 56 55 55 57 58 58 58 56 56 57 57 56 56 57 57 56 56 54 53 52 51 49 48 47 46 45 44 42 41
44 46 49 51 52 54 55 56 56 56 57 57 57 58 58 58 58 58 59 58 58 58 58 58 57 55 54 53 52 51 50 50 49 48 47 45 44 43
42 45 48 51 52 53 54 55 55 56 57 59 59 58 59 59 60 60 60 60 59 59 58 58 58 56 55 54 53 53 52 52 51 49 48 47 46 45
39 42 44 46 48 50 52 54 55 56 57 59 59 59 60 61 61 61 60 61 60 59 60 59 59 57 56 56 55 54 53 52 51 51 50 49 48 48
38 40 42 44 46 48 51 53 55 57 59 58 60 60 60 60 61 61 61 62 61 61 62 60 59 59 58 57 57 56 55 55 54 53 52 51 51 50
39 42 44 47 49 51 52 53 55 58 59 60 60 61 61 61 61 60 61 61 60 61 62 61 60 60 59 59 58 58 58 58 57 56 55 54 53 52
42 45 47 49 51 53 54 54 55 57 58 58 60 60 61 61 62 62 61 61 61 60 61 62 61 62 62 61 61 61 60 59 59 58 57 55 55 54
43 46 48 50 51 52 54 56 57 57 58 58 58 59 60 60 61 62 62 61 61 61 61 62 61 62 62 61 60 61 60 60 59 58 58 57 56 56
45 46 47 49 51 53 54 55 55 56 57 58 59 60 61 61 60 60 61 61 60 60 60 61 60 60 61 60 58 58 59 58 57 57 56 56 55 54
46 47 49 50 51 52 53 54 55 56 57 59 60 61 61 61 60 59 59 60 59 59 60 60 60 59 59 57 56 55 56 56 56 55 55 55 54 52
48 48 49 50 51 51 52 53 55 56 57 58 59 60 60 60 60 59 58 57 57 57 57 57 57 57 56 55 55 54 54 54 54 54 53 52 51 51
48 48 48 49 50 51 52 52 54 55 57 58 58 58 58 58 56 56 56 55 54 53 53 54 54 53 52 51 51 51 51 51 50 50 49 49 49 49
48 48 49 49 50 51 52 53 54 55 55 55 55 54 54 53 53 52 53 52 52 51 50 50 50 49 48 47 47 47 47 47 47 47 48 47 46 45
48 48 49 50 50 51 52 53 53 52 52 51 50 50 49 49 48 49 49 49 48 47 47 47 47 46 46 44 43 43 43 44 44 44 44 44 44 43
48 48 49 49 50 50 50 50 49 48 47 45 44 44 44 44 44 44 44 44 44 44 44 43 42 43 42 41 40 40 40 41 41 40 40 41 41 41
48 48 48 48 48 48 47 46 44 43 42 40 39 39 39 39 39 40 39 40 39 40 40 40 39 38 37 37 38 38 39 38 38 38 38 39 40 40
48 47 47 47 46 45 43 42 40 39 37 36 35 35 34 34 35 35 35 34 34 34 33 34 34 34 34 34 34 34 35 35 35 35 36 37 38 37
46 46 45 44 43 41 39 38 37 35 34 33 32 31 31 30 29 29 29 29 29 29 28 29 30 31 31 30 29 30 30 31 32 33 34 35 35 35
44 43 42 41 39 37 36 35 34 32 31 30 29 29 28 26 25 25 24 24 24 23 23 23 24 26 27 28 27 26 27 28 29 31 32 33 33 33

GEFSNE_500_meanwind_126.txt.gz
Wind_Speed
49 50 50 51 52 54 55 56 56 57 57 56 56 54 54 54 51 52 53 53 53 53 52 52 51 50 49 48 48 47 47 46 45 45 44 43 42 41
48 49 50 51 52 53 54 55 56 57 57 57 57 56 55 55 54 53 54 54 53 53 53 53 52 52 51 50 49 49 48 48 48 47 46 45 45 44
47 47 48 50 51 52 52 54 55 57 58 57 57 57 56 56 55 55 56 55 55 55 55 54 53 53 52 52 52 51 51 51 51 50 49 49 47 47
46 46 47 48 49 51 52 54 55 57 58 58 58 59 59 58 58 58 58 57 57 57 57 56 55 55 55 55 55 55 54 54 53 53 52 51 51 50
43 45 46 46 48 49 51 53 53 55 57 57 58 59 59 59 59 60 59 58 58 58 58 58 58 57 57 58 58 57 57 56 55 54 53 52 51 51
41 43 44 46 47 49 50 51 52 53 54 55 57 57 59 59 59 60 60 60 59 60 60 60 60 59 59 60 60 60 58 58 56 55 53 52 52 52
40 42 43 45 46 47 48 50 51 52 54 55 56 57 58 59 60 60 60 60 60 60 61 61 61 61 61 62 62 61 59 58 57 56 55 53 53 52
38 40 41 42 44 45 47 49 50 52 53 54 55 57 58 59 59 60 60 61 61 62 63 62 62 61 61 62 62 61 61 60 59 58 57 56 55 54
38 39 40 41 43 44 45 47 49 50 52 53 54 54 55 57 58 59 61 61 61 61 63 63 64 64 63 63 62 62 62 61 60 60 59 58 56 55
37 39 40 42 43 44 46 47 48 49 51 53 54 56 57 58 59 60 61 62 62 63 64 64 64 64 64 63 63 63 62 63 62 62 60 59 57 56
36 38 40 42 43 45 46 47 48 50 52 54 55 56 57 59 60 61 62 63 63 63 63 63 63 64 63 62 62 63 63 62 62 61 60 58 58 57
37 39 41 42 43 44 46 48 50 51 53 55 56 56 58 58 60 62 63 62 62 61 61 61 61 62 61 61 61 61 61 60 59 58 58 57 57 57
38 40 41 43 44 45 47 48 49 51 52 54 55 56 56 57 58 60 62 63 61 59 60 60 59 60 60 59 58 58 58 57 57 56 55 55 56 57
40 41 42 43 44 45 46 47 48 49 50 52 53 54 55 55 56 57 58 60 59 59 59 59 58 58 58 57 56 56 56 55 55 55 54 55 55 56
42 43 44 44 45 46 46 47 48 49 50 51 52 53 53 54 55 56 56 56 56 56 56 56 56 55 55 55 54 55 55 55 55 55 55 55 55 55
43 44 45 45 46 46 46 47 48 49 50 50 51 52 53 53 54 54 54 54 53 53 54 54 53 53 53 52 53 53 53 54 54 55 54 54 53 54
45 45 46 46 46 47 47 48 48 49 50 50 50 50 51 52 53 53 53 53 52 51 51 51 52 52 51 51 51 51 51 52 52 53 53 53 52 53
46 46 46 46 46 47 47 48 48 49 49 49 49 49 49 50 50 50 49 48 48 48 48 47 47 47 47 47 47 47 47 48 49 49 50 51 51 51
46 46 46 46 46 46 47 47 48 48 48 47 47 47 46 46 45 44 44 43 42 42 43 43 43 43 42 41 41 42 42 43 44 45 46 47 48 48
46 46 46 45 45 46 46 46 45 44 44 44 44 43 42 41 39 38 38 37 37 37 37 38 38 38 37 36 35 35 36 38 39 39 40 41 42 43
46 46 45 45 44 44 44 43 42 41 40 40 39 39 38 36 35 33 32 32 32 31 32 33 33 33 32 31 31 31 32 33 34 34 34 35 36 37
45 44 43 42 41 40 40 39 38 38 37 37 36 34 32 31 29 29 28 28 28 28 27 28 28 28 28 29 29 29 29 29 30 30 30 31 32 33
42 41 40 39 38 37 37 36 35 35 34 33 32 30 28 27 26 25 24 24 24 24 24 24 25 25 26 26 26 25 26 27 27 27 27 28 28 29

GEFSNE_500_meanwind_132.txt.gz
Wind_Speed
47 48 50 51 51 52 54 55 54 53 53 53 53 54 55 57 58 59 58 57 55 55 55 55 55 55 55 54 54 53 52 52 51 51 50 49 48 45
46 46 47 49 49 51 52 52 53 54 52 52 53 54 55 56 58 59 59 58 56 56 57 58 58 57 56 55 56 55 55 54 53 53 51 50 50 49
43 43 44 46 48 49 50 50 51 51 52 52 52 53 55 56 57 57 58 60 60 59 58 59 59 59 57 56 57 58 58 58 57 56 54 53 53 52
41 41 42 43 44 45 47 49 50 51 52 52 52 53 54 55 57 58 60 61 61 61 60 59 59 59 59 59 58 58 59 59 60 59 58 56 55 55
39 40 41 42 42 43 45 46 48 50 51 52 52 54 55 56 58 59 59 60 61 62 61 61 60 60 59 59 59 59 59 60 60 60 60 59 58 56
38 39 40 41 42 44 45 47 49 50 50 51 52 53 54 55 56 57 58 59 60 61 61 61 61 61 61 61 60 60 60 61 61 61 62 61 60 59
37 38 40 41 42 44 45 46 48 49 50 51 52 53 53 54 55 56 57 57 58 59 60 61 62 62 63 62 62 62 62 63 64 63 61 61 61 61
36 37 39 40 41 43 44 46 47 47 49 51 52 53 53 54 55 56 56 56 56 57 58 59 61 62 63 62 62 62 63 64 64 64 62 62 63 63
37 38 40 41 43 44 45 46 47 48 49 50 50 52 53 54 55 55 55 55 56 57 58 58 59 60 62 63 64 64 63 63 63 63 63 63 64 64
38 39 40 41 42 44 45 45 46 47 48 49 50 51 51 52 53 54 55 56 57 58 60 59 60 60 62 65 66 66 65 65 64 63 63 63 64 64
39 39 40 41 42 43 43 44 45 46 47 49 50 51 51 52 53 54 55 56 57 58 59 59 59 60 60 62 64 66 66 65 65 64 64 64 63 63
39 40 41 42 43 43 44 44 45 46 47 48 50 51 52 53 54 54 55 56 56 57 58 59 59 60 59 59 60 61 62 63 62 62 62 62 62 61
40 41 42 43 44 44 44 45 46 46 46 48 49 50 52 53 53 54 55 55 55 56 57 58 58 58 58 56 56 58 59 60 60 60 61 61 60 60
41 42 43 43 43 43 44 45 46 46 47 48 49 50 51 52 53 53 54 54 54 55 55 56 56 56 55 55 55 56 56 57 58 58 58 58 58 57
42 43 43 43 43 44 45 45 46 47 48 48 49 50 51 51 51 51 52 52 51 52 53 54 54 53 53 53 53 53 53 54 55 55 54 55 55 55
43 43 44 44 44 45 46 46 47 48 48 48 48 49 49 49 49 50 51 51 51 51 51 51 51 51 50 50 49 48 48 49 49 51 50 50 51 51
43 43 44 44 45 46 46 47 48 48 48 48 48 48 48 49 49 49 50 51 50 49 48 47 47 47 46 46 45 44 43 43 43 44 46 46 47 48
44 44 45 45 45 45 45 46 46 46 46 46 47 47 47 47 47 47 47 47 46 45 43 43 42 41 40 40 40 39 38 39 40 41 41 42 42 42
45 45 46 45 45 45 44 44 44 45 45 45 45 44 43 43 43 42 41 41 40 39 38 38 37 36 35 34 34 36 35 34 35 35 36 37 37 37
44 45 44 44 44 43 43 43 43 43 43 42 41 40 40 40 39 38 37 36 34 33 33 33 33 32 31 31 31 32 33 32 32 31 32 32 32 32
43 43 42 42 42 42 41 41 41 40 39 38 37 37 37 37 36 35 33 32 31 31 30 30 30 29 29 29 29 29 30 30 30 30 29 29 29 30
41 41 41 41 40 40 38 38 37 36 35 35 35 35 34 33 32 31 30 29 28 28 27 27 27 27 27 27 26 26 26 27 27 27 26 26 26 26
40 40 40 39 38 37 36 35 34 34 33 33 33 32 31 30 29 28 27 26 26 25 25 25 25 25 25 24 23 23 23 23 23 23 24 24 23 23

GEFSNE_500_meanwind_138.txt.gz
Wind_Speed
42 43 44 45 46 47 48 49 50 50 49 50 52 53 53 53 54 56 56 57 57 57 57 56 56 57 56 56 55 55 54 54 52 52 52 51 50 49
41 42 43 44 45 46 48 48 49 49 49 49 50 51 52 52 52 54 54 55 56 57 58 58 57 58 57 57 57 56 56 56 55 54 54 53 52 51
41 41 42 42 43 44 45 46 47 48 48 47 48 48 50 51 51 52 52 53 55 57 57 58 60 60 60 60 59 59 58 58 57 56 55 56 55 53
40 41 41 42 42 43 43 44 46 46 47 47 48 49 50 51 52 53 54 54 55 56 57 58 60 62 62 61 61 62 61 59 58 58 57 57 57 56
40 40 41 41 42 42 42 43 44 45 46 47 48 49 50 51 52 53 54 56 57 57 58 59 60 62 63 63 62 62 63 62 59 59 59 59 59 59
40 40 41 41 41 42 42 43 43 44 45 46 47 48 49 51 52 53 54 55 56 57 58 59 59 61 63 63 63 62 63 63 62 61 61 61 61 61
40 40 41 41 41 42 42 42 42 43 44 46 47 48 50 51 52 53 54 55 55 56 57 58 59 60 61 62 63 64 64 65 65 64 63 63 63 63
41 41 41 42 42 42 42 42 43 44 45 46 47 48 48 49 50 52 53 53 53 54 55 57 59 59 60 62 63 64 64 65 66 66 65 65 65 65
42 42 42 42 42 42 42 43 44 45 46 47 47 47 48 48 49 50 51 53 54 55 56 56 58 59 60 61 62 63 63 63 65 66 66 65 65 65
42 42 42 42 43 43 44 45 46 47 48 48 49 49 49 50 50 51 51 52 53 55 56 56 56 57 58 60 61 62 63 64 64 66 67 66 66 67
41 42 42 43 43 44 45 46 47 47 48 48 49 49 49 50 50 51 52 53 53 54 55 56 56 57 57 58 59 60 62 63 64 64 65 66 66 67
43 43 44 44 44 45 46 47 47 47 47 46 47 47 48 48 49 50 51 51 52 53 54 55 55 56 56 57 58 59 59 61 62 61 62 62 62 63
43 43 44 45 45 46 47 47 47 46 45 45 46 47 48 48 49 50 51 51 52 52 53 54 54 54 54 53 53 54 55 56 57 58 58 58 59 59
43 44 44 44 45 45 46 46 45 45 44 45 46 46 47 48 49 50 51 51 51 52 52 53 52 52 51 50 50 50 51 52 53 54 55 55 56 56
43 43 43 43 44 44 44 43 43 43 43 44 45 46 47 48 48 49 49 50 50 50 50 50 50 49 49 48 47 48 48 49 50 50 51 52 52 53
42 42 42 43 43 43 43 42 42 43 43 43 44 45 45 46 46 46 47 46 46 46 47 46 46 45 45 45 45 45 46 46 46 46 46 46 47 49
41 41 41 42 42 42 42 42 42 42 41 42 42 43 43 43 43 43 43 42 42 41 41 42 41 41 42 41 41 41 41 41 41 41 41 41 41 43
41 40 41 41 41 41 41 41 40 40 40 40 41 41 41 40 40 40 40 39 39 38 38 37 37 37 37 37 37 36 36 36 36 37 38 38 38 40
39 39 39 40 40 40 40 39 39 39 39 39 39 38 38 38 38 37 37 37 36 35 34 33 34 33 33 32 33 34 34 33 33 34 35 35 35 35
38 38 39 39 39 39 38 38 38 38 38 37 37 36 36 36 36 35 35 34 33 32 31 31 30 30 30 30 30 30 31 30 30 30 31 31 31 31
37 37 37 38 37 37 37 37 36 36 36 35 34 34 34 34 34 33 32 32 31 30 30 29 29 29 28 28 27 27 28 28 27 27 28 28 29 29
36 36 36 36 36 36 36 35 34 34 33 33 32 32 32 32 32 31 30 29 28 28 28 28 28 27 26 26 25 26 26 26 26 26 26 26 26 27
35 35 35 34 34 34 35 34 33 32 32 32 32 32 32 31 30 29 28 27 27 27 27 27 26 26 25 25 24 24 24 25 25 24 24 24 24 24

GEFSNE_500_meanwind_144.txt.gz
Wind_Speed
40 40 40 41 41 42 42 42 42 42 43 44 45 46 46 47 47 48 48 49 50 50 50 50 49 50 52 53 53 54 54 54 54 53 53 53 53 52
41 41 41 41 42 42 42 43 43 43 43 44 45 46 47 46 46 46 47 48 48 49 49 50 51 51 52 53 53 52 53 54 54 54 54 54 54 54
40 40 40 41 41 42 42 43 44 44 44 44 45 46 46 46 45 46 47 48 49 50 51 52 52 52 53 53 52 53 53 54 55 55 55 56 56 57
40 40 41 41 42 42 43 44 44 45 45 45 46 46 45 45 45 46 46 47 48 49 50 51 52 52 53 53 53 54 54 54 54 56 57 58 58 58
41 42 42 42 43 43 44 45 46 47 47 47 46 45 45 45 45 45 46 47 48 49 50 51 51 52 53 53 54 55 56 56 56 56 57 57 58 58
42 42 43 43 44 45 46 47 47 48 49 48 47 46 46 46 46 46 47 48 48 50 51 51 52 53 54 55 56 56 57 59 59 58 57 58 59 59
43 43 44 45 45 46 47 48 49 49 49 48 47 47 47 48 48 49 49 49 49 50 51 52 52 53 55 55 56 56 58 59 60 61 60 59 60 60
44 45 45 46 47 47 48 48 48 48 47 47 47 48 48 49 50 50 50 50 49 50 51 52 53 54 56 56 57 58 59 60 60 61 61 61 61 61
44 45 46 47 47 47 48 49 49 48 48 48 48 48 48 49 49 49 49 49 49 49 50 50 52 53 54 55 56 58 59 59 60 60 61 61 61 62
45 45 46 47 47 48 49 49 48 48 48 49 49 49 49 49 49 49 49 49 49 50 51 51 51 52 53 54 55 56 58 58 59 60 61 62 62 63
45 45 46 47 47 48 48 48 48 48 48 49 48 48 49 49 49 49 49 49 49 50 51 52 52 52 53 53 54 55 55 56 57 58 60 60 61 62
44 45 45 46 46 46 46 46 46 46 47 47 47 47 48 48 49 49 49 50 50 50 51 52 52 52 51 51 52 53 54 54 55 56 57 58 59 59
44 44 45 45 45 45 45 45 45 46 46 46 46 46 47 48 48 49 49 50 50 50 50 50 50 50 50 49 50 51 52 52 52 53 54 55 56 57
44 44 44 44 44 44 45 45 45 45 45 45 46 46 47 47 48 48 48 49 49 49 49 49 48 48 48 47 47 48 49 50 50 49 50 50 52 53
43 43 43 43 43 43 43 43 43 43 43 44 44 45 45 46 46 46 46 46 46 47 47 47 46 46 46 45 45 45 45 45 46 46 46 46 46 48
42 42 41 42 42 42 42 42 42 42 43 43 44 44 45 45 45 44 43 43 43 43 44 44 44 43 43 43 43 42 42 41 41 41 41 41 41 42
40 40 41 41 41 40 41 41 41 42 42 43 43 43 43 43 43 42 41 41 40 40 41 42 42 42 41 41 40 39 39 38 38 38 37 36 37 38
39 39 40 40 40 40 41 41 41 41 42 42 42 41 41 41 41 40 39 39 39 39 39 39 39 38 38 37 38 37 36 35 35 34 35 34 34 35
39 39 39 39 39 40 41 41 41 41 41 41 40 40 40 39 38 38 38 38 38 37 37 37 37 36 35 34 34 35 34 33 32 31 32 32 32 32
38 38 38 39 39 40 40 40 40 40 40 39 39 38 38 37 36 36 37 36 36 35 35 35 35 34 33 31 30 31 32 31 29 29 28 28 29 29
37 37 37 38 39 39 40 39 39 39 39 38 38 37 36 35 35 35 36 35 34 33 32 32 32 32 31 29 28 28 28 28 27 26 26 25 25 25
37 36 37 38 38 38 38 37 37 37 37 37 36 35 34 34 34 34 34 33 32 32 32 31 31 31 29 28 26 26 26 25 24 24 23 22 22 22
36 36 36 37 37 37 36 36 36 36 35 35 34 34 34 33 33 33 32 32 32 32 31 30 29 28 27 26 25 24 23 22 20 20 20 20 20 20

GEFSNE_500_meanwind_150.txt.gz
Wind_Speed
42 42 42 42 42 42 42 42 42 42 42 43 44 44 44 44 45 45 45 46 47 47 47 47 47 48 48 49 50 51 53 54 54 53 52 53 52 53
42 42 43 43 43 43 43 43 43 43 43 44 45 45 46 45 45 46 46 46 47 47 47 47 47 48 48 49 51 52 53 55 55 55 55 55 55 55
43 44 44 44 44 44 44 45 45 45 45 45 46 47 47 47 47 48 48 47 48 48 48 48 48 48 49 49 50 51 52 53 54 54 56 55 56 56
44 45 45 46 46 45 46 46 46 46 47 47 47 48 48 48 49 49 50 49 49 49 49 49 48 48 49 49 50 50 51 52 53 54 56 56 56 56
46 46 46 46 46 46 46 46 47 47 47 48 48 49 48 49 50 51 52 52 52 51 50 50 49 50 50 50 51 51 52 53 53 54 55 56 56 56
47 47 47 47 47 47 47 47 48 48 49 49 49 49 49 50 51 51 51 52 52 52 51 50 50 51 51 51 51 52 52 53 54 55 55 56 57 57
47 47 48 48 48 48 49 49 49 49 50 50 50 50 50 51 51 50 50 51 51 51 50 51 51 50 50 50 50 51 53 54 55 55 56 57 58 58
47 47 48 48 48 49 49 49 50 50 50 50 50 50 51 51 51 51 50 50 49 49 50 50 51 51 51 51 52 53 54 54 54 55 56 57 58 59
48 48 48 48 48 49 49 50 50 49 49 49 50 50 50 51 51 51 51 50 49 50 50 49 50 51 51 52 53 53 53 54 55 55 56 57 58 59
48 48 48 48 49 49 49 49 49 49 49 49 50 50 50 50 50 50 50 50 50 50 50 49 50 51 51 53 54 55 55 55 55 55 55 56 57 58
47 48 48 48 48 49 49 49 49 49 49 49 49 49 49 49 50 50 49 50 50 50 50 50 50 50 50 52 53 54 54 54 54 54 54 55 56 57
47 48 48 48 48 49 49 48 48 48 48 48 48 48 48 48 48 49 49 49 49 49 50 50 50 49 49 49 51 52 53 52 52 53 53 54 54 55
46 47 47 47 48 48 48 47 47 47 47 47 47 47 47 47 48 48 48 47 47 48 48 49 48 48 48 47 47 48 49 50 50 50 51 51 52 53
46 46 47 47 47 47 46 45 45 45 45 45 45 45 45 46 46 46 46 46 47 47 47 47 46 46 46 45 44 45 46 47 48 48 48 49 49 49
45 45 45 45 45 45 44 44 44 43 43 43 43 43 44 44 44 44 45 45 45 45 45 44 44 44 43 43 42 43 43 44 45 45 45 45 46 45
43 43 43 42 42 42 42 42 41 41 41 41 41 42 43 43 44 44 43 43 43 43 43 43 42 42 41 41 41 41 41 42 42 42 42 43 43 43
41 41 41 40 40 40 40 39 39 39 40 40 40 41 41 42 42 42 42 42 42 41 41 41 41 40 40 40 39 39 40 40 40 41 40 40 40 41
39 39 39 38 38 38 37 38 38 38 38 39 39 40 40 41 41 41 42 41 40 39 38 38 38 38 37 38 38 38 38 38 38 38 38 37 37 37
38 38 38 38 37 37 36 36 36 37 38 39 39 40 40 40 41 41 40 39 38 37 37 37 36 36 35 35 35 37 37 36 35 35 35 34 33 33
37 37 37 37 36 36 36 36 36 37 38 38 39 39 39 39 39 39 38 36 35 35 35 35 35 35 34 34 33 33 35 34 33 33 32 31 30 30
36 36 36 36 35 35 35 36 37 37 38 38 38 38 38 38 37 36 35 34 34 33 33 33 33 34 34 33 32 32 33 33 32 31 30 28 27 27
35 35 35 35 35 35 35 36 36 37 37 37 37 37 36 36 35 35 34 33 32 32 32 32 32 33 32 32 31 30 30 30 30 29 28 26 25 24
34 34 34 34 35 35 35 35 36 36 36 35 35 35 35 34 34 33 33 32 31 31 31 31 31 32 32 31 30 29 28 27 26 25 25 24 23 23

GEFSNE_500_meanwind_156.txt.gz
Wind_Speed
46 47 47 47 47 47 48 48 48 47 46 46 47 46 46 46 45 45 46 47 47 48 48 49 50 50 50 50 50 49 49 50 51 52 52 51 52 52
48 49 49 49 49 50 50 50 50 50 50 50 49 48 48 48 48 48 48 48 49 49 49 50 51 51 51 50 50 50 50 51 51 52 52 53 53 53
48 49 50 51 51 51 52 52 52 52 52 51 51 50 50 50 50 50 50 50 51 51 51 50 51 51 51 51 51 51 52 52 52 52 52 52 53 54
50 49 50 50 51 52 53 53 53 53 53 52 52 51 51 51 50 51 51 52 52 52 51 51 51 51 51 52 52 52 52 53 53 52 52 52 52 53
51 51 51 51 52 52 52 53 52 52 52 52 51 51 51 51 51 52 52 52 52 52 52 52 51 51 51 51 51 52 53 53 53 52 52 52 52 53
51 51 51 52 52 52 52 52 51 51 52 52 51 51 51 51 52 52 52 53 53 53 53 53 53 53 52 52 52 52 53 53 52 52 52 52 52 53
51 51 51 51 51 51 51 51 51 51 51 51 51 51 51 52 52 52 52 52 52 52 53 53 53 53 53 54 54 54 53 52 52 52 52 52 52 53
51 51 51 51 51 51 51 51 51 51 51 51 51 51 51 52 52 52 52 52 52 53 53 53 54 54 54 54 54 54 53 52 51 52 52 52 53 53
52 52 51 51 51 51 51 51 51 51 51 51 51 52 52 52 52 52 51 51 52 52 52 52 53 53 53 53 53 53 53 52 51 51 52 53 53 53
50 51 51 51 51 51 51 50 51 51 51 51 51 51 51 51 51 51 51 51 52 52 52 51 51 51 51 52 52 52 52 51 51 51 51 51 51 51
49 50 50 50 50 50 49 49 50 50 50 50 50 50 50 50 50 50 50 50 50 50 50 49 49 49 49 50 50 50 50 50 50 50 50 50 50 50
49 49 49 49 48 48 48 48 48 48 48 49 49 50 49 49 49 50 50 49 49 48 48 48 48 48 47 48 48 48 48 47 47 48 47 47 48 48
47 47 48 48 47 48 47 47 47 47 47 48 48 48 49 48 48 49 48 48 47 47 47 46 46 47 47 46 45 46 46 45 45 45 44 44 45 45
46 47 47 47 47 47 46 46 46 46 46 46 47 47 47 47 47 47 47 46 46 46 45 45 45 45 45 45 43 43 42 42 42 42 42 43 43 44
46 46 46 45 45 45 44 44 44 44 44 44 44 44 44 45 45 45 45 45 45 45 45 45 44 44 43 42 41 40 39 39 40 40 40 41 42 43
45 44 44 44 43 42 42 42 42 42 42 42 42 43 43 43 43 43 43 43 42 43 43 43 43 42 41 40 39 39 38 38 38 39 39 39 40 41
43 42 42 42 41 40 40 40 40 40 40 40 40 40 41 41 41 41 41 41 41 41 41 42 41 40 39 39 38 38 38 38 37 37 37 37 39 40
42 41 41 41 40 39 39 39 39 39 39 39 39 39 40 40 40 40 39 40 40 40 40 40 39 38 38 37 38 38 37 37 37 36 36 37 37 38
41 41 40 40 39 39 38 38 38 38 37 37 38 38 39 39 39 38 39 39 39 38 38 37 37 36 36 35 36 37 36 36 36 35 36 36 36 35
39 38 38 38 37 37 37 37 37 37 36 37 37 38 37 37 37 38 38 38 37 37 36 36 36 35 35 34 33 34 35 34 34 33 34 34 33 32
37 36 35 35 34 35 35 35 35 35 36 36 37 37 36 36 37 37 37 36 35 35 34 34 35 35 34 34 33 32 33 33 33 32 31 31 29 29
35 34 33 33 33 33 33 34 34 34 35 36 36 36 36 35 35 35 34 33 33 33 33 33 33 33 33 32 31 31 31 31 31 31 31 31 29 28
33 33 32 32 32 32 32 33 33 33 34 34 35 35 34 34 33 32 32 31 31 31 31 31 31 31 31 30 30 30 29 29 28 28 29 29 28 28

GEFSNE_500_meanwind_162.txt.gz
Wind_Speed
46 47 48 49 49 50 50 51 51 51 52 52 52 52 52 52 52 53 53 52 52 51 50 50 50 50 50 50 50 50 50 51 51 51 51 51 51 51
47 48 49 50 50 51 51 51 52 52 52 52 53 53 53 53 53 53 53 53 52 51 51 50 50 50 51 51 51 51 51 52 52 52 51 51 51 52
50 49 49 49 50 50 51 52 52 52 53 53 53 53 54 54 54 53 53 53 52 51 51 50 51 51 51 51 51 52 52 53 53 52 52 52 52 52
51 51 51 50 50 51 51 51 51 52 52 53 53 54 55 54 54 53 52 52 51 52 51 50 51 51 51 52 52 52 52 52 52 52 51 52 52 52
51 52 51 51 51 51 51 52 52 53 53 53 54 54 55 54 53 52 52 51 51 51 51 51 51 51 52 52 53 52 52 51 51 51 51 52 52 52
51 51 52 52 51 52 52 53 53 53 54 53 54 53 53 52 52 51 51 51 51 51 52 52 52 52 52 52 52 51 51 51 51 51 52 52 52 53
50 50 51 51 52 52 52 52 53 53 53 53 53 52 52 51 51 50 50 50 51 50 51 51 51 51 51 51 51 51 51 51 52 52 52 52 52 53
48 49 49 50 51 51 51 52 52 52 52 52 52 52 51 51 50 50 50 49 49 50 50 50 51 50 50 50 50 51 51 52 52 52 52 52 52 52
47 48 48 49 49 50 50 50 50 51 51 51 51 51 51 50 50 49 49 49 49 49 49 49 49 49 49 49 50 50 51 52 52 52 52 52 52 51
48 48 48 48 49 49 49 49 50 50 50 50 50 50 50 49 49 48 48 48 48 49 48 48 48 48 49 49 49 49 50 50 50 50 51 51 51 51
47 48 48 49 49 49 48 49 49 49 49 49 49 48 48 48 48 48 47 47 47 48 47 47 47 48 48 49 49 49 48 48 49 49 49 49 49 49
48 49 49 50 49 49 48 48 48 48 48 47 47 47 47 46 46 46 46 46 46 46 47 46 47 47 46 46 47 47 47 47 46 46 47 47 47 46
49 49 49 49 49 48 48 47 47 47 46 46 46 46 46 45 45 45 45 45 45 45 46 45 45 46 45 45 45 46 45 45 44 44 44 44 44 44
49 49 49 49 48 48 47 46 46 46 46 46 45 45 45 44 44 44 44 45 45 45 45 44 44 44 44 43 43 43 43 43 43 43 42 42 43 43
49 48 48 48 47 47 46 46 46 46 45 45 44 44 44 43 43 43 43 43 44 44 43 43 43 42 42 42 42 42 41 42 42 42 41 41 41 41
47 46 46 46 46 45 45 45 45 44 44 43 43 42 42 42 42 42 42 42 42 42 42 42 41 41 41 41 41 41 41 41 41 41 40 40 40 39
46 45 45 45 44 44 44 44 43 42 42 41 41 40 40 40 40 40 40 40 39 39 40 40 40 40 39 40 39 40 40 40 39 39 38 38 37 37
45 44 43 43 43 42 42 41 41 40 40 40 39 39 39 39 39 38 38 38 38 38 39 38 38 37 37 37 38 38 37 37 37 36 36 36 35 35
43 42 42 41 41 40 40 39 38 38 38 38 38 37 37 37 37 37 37 37 37 37 37 37 37 36 36 36 35 36 35 34 34 34 34 34 33 33
42 41 41 40 39 39 38 37 36 36 36 36 35 36 36 36 36 36 36 37 36 36 36 35 35 35 34 33 33 33 33 33 33 32 32 32 31 31
41 40 39 38 37 37 36 36 35 34 34 34 34 34 34 35 35 35 35 35 34 34 33 33 33 33 32 31 30 30 31 32 31 31 31 30 29 28
39 38 38 36 36 35 35 35 34 34 34 34 33 33 33 33 33 32 32 32 31 31 31 31 31 31 30 29 29 29 29 29 29 28 29 29 27 26
37 36 35 35 34 34 34 34 34 33 33 32 32 32 31 31 31 30 30 30 30 30 30 29 29 28 28 27 28 27 27 26 26 26 26 27 26 25

GEFSNE_500_meanwind_168.txt.gz
Wind_Speed
44 45 46 47 47 48 49 49 50 50 50 51 52 52 52 52 53 54 54 53 53 53 53 53 53 53 53 52 51 51 51 51 51 51 51 50 50 50
46 47 48 48 49 50 51 51 52 52 52 52 52 52 52 53 53 53 53 53 53 53 54 54 54 53 53 52 52 51 50 50 50 50 50 50 50 50
47 48 49 49 50 51 52 52 53 53 53 52 53 53 53 53 53 54 54 54 54 54 54 54 53 53 53 52 51 51 51 51 50 49 48 48 48 49
48 48 49 50 50 51 52 52 53 53 53 52 52 52 52 53 53 53 53 53 53 53 53 54 53 52 52 52 52 51 51 50 49 48 48 48 48 49
49 49 49 49 50 50 51 51 52 52 52 52 51 51 51 51 51 51 51 52 52 52 53 52 51 51 51 51 51 51 50 49 49 49 49 49 49 50
49 49 49 49 50 50 50 51 51 51 51 51 51 51 51 51 51 50 51 51 51 51 50 50 49 50 50 50 49 49 49 48 48 48 48 49 49 49
48 49 49 50 51 50 50 50 51 51 51 51 51 51 51 51 50 50 50 50 50 49 49 49 48 49 48 48 48 48 48 48 48 48 48 48 49 49
47 48 49 50 50 50 50 51 50 50 51 51 51 51 51 51 50 49 49 48 48 48 48 48 48 48 48 47 47 47 47 47 48 48 49 49 50 50
47 48 49 49 49 50 50 50 50 50 51 51 50 51 50 50 50 49 48 47 47 47 46 46 47 46 47 47 46 46 47 47 47 48 49 50 50 50
48 48 49 49 49 49 50 50 50 50 51 51 51 51 50 50 49 48 48 47 47 47 46 46 46 46 46 47 47 47 47 47 47 48 48 49 49 49
49 49 50 50 50 51 51 50 50 50 51 51 51 50 50 49 48 48 47 46 46 46 46 46 46 45 45 46 47 47 47 47 47 46 46 46 46 46
50 50 50 51 51 51 51 51 51 51 51 50 50 49 49 48 47 46 46 46 46 45 46 46 46 45 44 44 46 46 45 44 44 44 44 44 44 44
51 51 51 51 51 51 51 51 51 51 50 50 49 48 47 47 46 46 46 46 46 45 45 45 45 44 44 42 43 44 43 42 42 42 43 43 44 44
50 51 51 51 51 51 51 51 51 50 49 48 47 46 46 45 45 45 45 45 45 45 45 44 44 43 42 42 42 42 42 42 41 41 42 42 43 42
51 51 51 51 51 51 51 50 50 49 48 47 47 46 45 45 45 45 45 45 45 44 44 44 42 41 41 41 41 41 40 40 40 40 40 41 41 40
51 51 51 51 50 50 49 49 48 48 47 47 46 45 45 44 43 43 43 43 43 43 42 42 42 41 40 40 40 40 39 39 39 39 39 39 39 38
50 50 49 49 49 48 48 47 47 46 46 45 44 44 43 42 42 42 42 42 41 41 41 41 40 39 39 38 38 38 38 38 38 37 37 36 36 37
50 49 49 48 48 47 46 46 45 44 44 44 43 42 42 41 40 40 40 40 39 39 39 38 38 37 37 36 36 36 36 35 35 35 34 34 34 35
48 48 48 47 46 46 45 44 43 43 43 42 42 41 40 40 39 39 38 38 38 37 37 36 35 34 34 34 34 35 34 33 33 32 32 32 31 32
47 47 46 45 45 44 43 43 42 41 41 40 39 38 38 37 37 37 36 36 36 36 35 34 33 32 32 32 32 32 32 31 30 30 30 30 30 30
45 45 44 44 43 43 42 42 41 40 39 38 37 37 36 35 35 34 34 34 34 34 33 32 32 32 31 31 30 30 30 29 29 28 28 28 27 27
43 43 43 42 42 41 41 40 39 38 37 36 35 35 34 34 33 33 32 32 31 31 30 30 30 30 30 29 29 28 27 27 27 28 28 27 26 25
43 42 41 41 40 39 39 38 37 35 35 34 33 32 32 31 30 30 30 30 29 29 29 28 28 29 28 28 27 25 25 25 25 26 26 26 25 25

GEFSNE_500_meanwind_174.txt.gz
Wind_Speed
42 42 41 41 42 43 44 44 45 46 47 47 48 49 50 50 51 52 52 52 52 52 52 52 52 52 52 52 52 52 51 51 51 51 51 51 50 49
43 44 44 44 44 44 45 46 47 48 49 50 50 50 51 52 53 52 52 52 52 52 52 51 51 51 51 51 51 51 51 51 51 51 51 50 49 49
45 45 45 46 47 47 48 48 48 49 49 50 51 52 52 52 53 53 53 53 53 52 52 52 52 51 51 51 51 51 50 50 50 50 50 49 49 49
46 46 47 47 48 49 49 49 50 50 50 50 50 51 52 52 52 52 52 52 51 52 52 52 51 51 50 50 50 50 49 49 49 49 49 48 48 48
47 47 48 48 48 49 49 50 50 50 51 51 51 52 52 53 53 53 53 52 52 51 51 51 51 50 50 49 49 48 48 48 48 48 48 48 48 48
48 48 49 49 49 49 50 50 50 51 51 51 52 52 53 53 53 53 53 53 52 52 52 52 51 50 50 49 49 48 48 48 48 47 47 47 48 48
48 49 49 50 49 50 50 50 50 51 51 51 52 53 53 54 54 54 53 53 52 52 52 52 51 51 51 50 49 49 48 48 48 47 47 47 47 48
49 49 49 50 50 50 51 51 51 52 52 52 53 53 53 53 53 53 53 53 52 51 51 51 51 51 51 50 50 49 49 48 48 47 47 47 47 47
50 50 50 50 50 51 51 52 52 52 53 53 53 53 53 53 53 53 53 53 52 52 51 51 51 51 50 50 50 49 48 48 48 47 47 47 47 47
50 50 50 50 51 52 52 53 53 53 54 54 54 54 54 54 53 53 52 52 52 52 51 50 50 50 50 50 49 49 48 48 47 47 47 47 47 47
51 51 51 51 52 53 53 54 54 54 54 54 54 54 54 53 53 53 52 52 52 51 50 49 49 49 49 49 49 48 48 47 47 46 46 46 45 45
50 51 51 52 52 53 53 54 54 54 54 54 53 53 53 53 53 53 52 52 51 50 49 49 48 48 47 47 48 47 47 46 46 45 44 44 44 43
50 51 51 51 52 53 53 53 53 53 54 53 53 53 53 52 53 53 52 51 51 49 49 48 47 47 47 46 46 46 46 45 45 44 43 43 43 42
50 50 51 51 51 52 52 52 52 53 52 52 52 52 52 52 52 52 51 50 49 48 47 47 46 46 45 45 44 44 45 44 43 42 42 42 41 41
51 50 51 51 51 51 51 51 51 51 50 50 50 50 50 50 50 50 49 48 48 47 46 46 45 45 45 44 43 43 43 42 42 41 41 41 40 40
51 51 51 51 51 51 51 50 50 50 49 49 48 48 48 48 48 48 47 47 46 45 45 45 44 44 43 43 42 42 41 40 40 40 39 39 39 38
50 50 50 50 50 50 50 49 48 48 47 47 47 47 47 47 47 46 45 45 44 43 42 43 42 42 41 41 40 40 39 38 38 38 37 36 36 36
49 49 49 49 49 48 48 47 47 46 46 47 47 47 46 46 45 44 43 42 41 40 40 41 41 41 40 39 38 37 36 36 35 35 34 34 33 33
48 48 48 47 47 47 46 46 46 47 47 46 46 45 45 44 43 42 41 40 39 39 38 39 39 38 38 37 36 35 34 33 33 32 32 31 30 30
47 47 46 46 46 45 45 46 46 46 45 45 44 43 43 42 41 40 39 38 38 37 37 36 36 36 35 34 33 32 32 31 30 30 30 30 29 28
45 45 45 44 44 44 44 44 44 43 42 42 41 41 41 40 39 37 37 36 36 35 34 34 34 33 32 31 29 29 29 28 28 28 28 27 26 26
43 43 43 43 43 43 42 42 41 41 40 40 39 38 38 36 35 34 34 33 33 32 32 31 31 29 28 28 27 26 26 26 27 27 26 25 24 23
41 40 40 40 41 40 40 39 38 38 38 37 36 35 34 33 33 32 31 30 30 29 29 28 27 26 26 25 25 25 25 25 25 25 24 23 23 23

GEFSNE_500_meanwind_180.txt.gz
Wind_Speed
43 44 45 45 45 45 46 46 47 46 47 48 49 49 49 50 51 51 51 52 52 52 53 53 53 53 53 52 52 52 52 52 52 51 50 49 49 48
45 46 46 46 46 47 48 49 49 50 49 50 51 51 51 52 53 53 53 53 53 53 54 54 54 54 54 54 54 53 53 52 52 51 50 50 49 49
46 47 48 48 47 48 49 50 51 52 52 52 52 53 54 53 54 54 54 54 55 55 55 55 55 55 55 55 54 54 54 53 51 51 50 50 50 49
47 48 49 50 50 50 51 51 52 52 53 52 52 53 53 53 53 54 55 55 55 56 56 56 55 55 55 55 55 55 54 52 51 51 51 50 50 49
48 49 49 50 51 51 52 52 53 53 53 53 53 53 53 54 54 54 55 55 55 56 56 55 55 56 55 55 54 54 53 52 51 51 50 50 49 49
49 49 50 51 52 52 52 52 53 53 54 54 54 54 54 55 55 55 55 55 56 56 56 56 56 56 55 55 54 53 52 52 51 51 50 49 49 49
50 50 51 52 52 53 53 53 53 53 53 54 54 54 55 55 55 55 55 56 56 56 56 57 56 56 55 55 54 53 52 52 51 51 50 49 49 48
50 51 51 52 53 53 53 54 54 54 53 54 54 54 55 56 56 56 56 56 56 56 56 56 56 55 55 54 53 52 52 51 51 50 49 49 48 48
51 52 52 53 53 53 53 53 54 53 54 54 54 55 55 56 56 56 56 56 56 56 56 55 55 55 54 53 52 51 51 51 50 49 48 48 48 48
52 52 53 53 54 54 53 53 53 54 54 54 55 55 56 56 56 56 56 56 55 54 54 53 53 52 52 52 52 51 50 50 50 48 48 48 48 48
52 52 53 54 54 55 55 54 54 55 55 55 55 55 55 55 55 55 55 54 53 52 52 51 51 51 51 51 51 50 49 49 48 48 48 48 48 47
53 53 54 54 54 55 55 54 55 54 55 54 54 54 54 54 54 53 53 52 52 51 51 51 51 52 51 51 51 50 49 49 48 48 47 47 46 46
53 53 53 54 54 54 54 55 54 55 55 54 53 53 53 53 53 52 52 51 51 51 51 51 51 51 51 49 49 49 49 48 48 47 46 45 45 45
52 53 53 53 53 53 53 53 53 54 54 53 53 53 53 53 52 51 51 51 51 51 51 51 51 50 49 48 47 47 47 47 47 46 45 44 44 44
52 52 52 52 52 53 52 52 52 52 52 52 53 53 53 53 52 52 52 52 51 51 50 50 50 49 49 48 46 45 45 45 45 43 42 42 42 42
51 51 51 52 52 51 51 51 51 51 51 51 52 52 51 51 51 52 51 51 50 49 50 49 49 48 47 46 44 44 44 42 41 40 40 40 40 41
51 51 50 50 50 50 50 50 50 50 50 50 50 50 50 50 50 50 50 50 49 48 48 48 47 46 45 43 42 41 41 40 39 38 37 37 37 37
50 49 49 49 49 49 49 49 49 49 49 49 49 48 48 48 48 48 49 48 48 47 46 45 44 43 42 41 40 39 38 37 36 36 36 35 34 34
48 48 47 47 47 46 46 47 47 47 47 47 47 46 46 46 47 47 46 46 45 44 43 42 41 40 39 38 37 37 36 35 34 34 33 32 31 31
47 46 45 45 44 44 44 45 45 45 45 44 44 44 44 44 44 43 43 43 42 41 40 39 38 37 37 35 34 34 33 32 31 31 30 29 29 28
44 43 43 43 42 42 43 43 42 42 42 41 41 41 41 41 40 40 39 39 38 37 36 35 35 34 33 33 32 31 30 30 29 28 27 26 25 25
42 41 41 40 40 40 41 40 39 39 38 38 38 37 37 37 37 36 36 35 35 35 34 33 32 31 31 30 29 28 28 27 26 25 25 24 23 23
40 39 38 38 38 38 38 37 36 36 35 35 35 35 35 34 34 33 33 33 32 32 31 30 30 29 28 28 27 26 25 25 24 23 23 22 22 21

GEFSNE_500_meanwind_186.txt.gz
Wind_Speed
42 43 44 45 46 47 47 46 46 46 46 47 48 49 49 49 49 50 51 52 52 53 53 53 53 52 52 52 52 52 52 52 51 51 51 51 51 50
43 44 45 47 48 49 49 48 48 49 49 49 50 51 51 51 51 52 52 52 53 53 53 53 52 52 53 53 53 53 53 53 53 52 52 52 51 51
46 47 48 49 50 50 50 50 51 52 52 51 52 52 52 52 52 52 53 53 53 53 53 53 54 54 54 54 54 54 54 54 54 53 53 52 52 52
47 48 49 50 51 51 52 52 53 54 54 54 54 54 54 53 53 53 54 54 54 54 54 54 55 55 55 55 55 55 54 54 54 53 53 53 53 52
48 48 49 50 51 52 53 53 54 55 55 55 54 54 54 54 54 54 55 55 55 55 55 55 55 55 55 55 55 54 54 54 54 53 53 53 53 52
48 49 50 51 51 52 52 53 54 54 54 54 54 54 54 54 55 55 56 56 56 56 56 56 56 56 56 55 55 54 54 54 53 53 53 52 52 51
51 51 51 51 51 52 52 53 53 54 54 55 54 54 54 54 55 56 56 56 56 56 57 57 57 56 56 55 54 54 54 53 53 53 53 52 52 51
51 51 51 51 52 52 52 53 54 54 55 55 56 56 55 56 56 56 56 57 56 57 57 57 57 56 56 55 54 54 54 53 53 53 52 51 51 51
52 52 52 52 52 52 53 53 54 55 56 56 56 56 56 57 57 57 57 57 57 56 56 56 56 55 54 54 54 54 54 53 53 52 51 50 50 49
53 53 53 53 54 54 54 55 55 56 57 57 57 57 57 57 57 57 57 56 55 55 55 55 54 54 53 54 54 54 54 53 52 52 51 49 48 48
52 53 53 54 54 55 56 56 56 56 56 56 56 56 56 56 56 56 55 55 55 54 54 54 53 53 53 53 53 53 53 52 51 50 49 49 48 47
52 53 54 54 55 56 56 56 55 55 55 55 55 55 55 55 55 54 54 54 54 53 53 53 53 53 52 52 52 52 52 51 50 49 48 48 47 47
53 53 54 55 55 55 55 55 54 55 55 55 55 55 54 54 53 53 53 53 53 53 52 52 52 52 52 51 51 51 51 50 49 48 47 47 46 46
53 54 54 54 55 55 54 54 54 54 54 54 54 54 53 53 53 53 53 53 52 52 51 51 51 52 51 50 50 49 49 48 47 46 46 45 44 44
53 54 54 54 54 54 53 53 54 53 53 53 53 53 53 52 52 52 53 52 51 51 51 51 51 50 50 49 48 47 47 46 45 45 45 44 43 43
53 53 53 52 52 52 52 52 52 52 52 52 52 51 51 50 51 51 52 51 50 50 50 50 49 49 48 47 46 45 44 43 43 43 42 42 42 41
51 51 51 51 50 50 50 50 51 51 51 50 50 49 49 49 49 49 49 49 48 48 47 47 46 46 45 44 43 43 42 42 41 41 40 39 38 37
51 50 50 49 49 49 49 49 49 49 49 49 49 48 48 48 47 47 47 46 45 45 44 43 43 43 42 41 41 40 40 40 39 38 37 36 35 34
50 49 48 47 48 48 48 48 48 47 47 47 46 46 46 45 45 44 44 43 42 41 40 40 40 40 40 39 38 38 38 37 36 35 34 33 32 31
48 47 46 46 46 46 46 46 46 45 44 44 43 43 43 42 41 41 40 40 39 38 38 38 38 38 38 37 36 36 35 34 33 32 31 30 29 29
45 44 44 44 44 44 44 43 42 42 41 40 40 40 39 38 38 37 37 37 37 37 37 36 36 36 36 35 34 33 32 31 31 30 29 28 28 27
42 41 41 42 42 41 41 40 39 38 38 38 38 37 36 36 35 35 35 35 35 35 35 35 34 34 33 32 31 30 29 29 28 28 27 27 26 25
40 39 39 40 39 39 38 38 38 37 37 37 35 35 34 34 33 33 33 33 33 33 33 32 32 31 30 29 28 27 27 27 26 25 25 25 24 23

GEFSNE_500_meanwind_192.txt.gz
Wind_Speed
42 43 44 44 44 44 45 45 45 46 46 47 48 49 49 49 49 49 50 51 51 52 52 52 52 52 52 52 53 53 52 52 51 51 51 50 50 50
43 44 44 45 45 45 45 46 47 48 49 49 50 51 51 50 51 50 51 52 52 53 53 53 53 53 53 53 54 54 53 53 52 52 52 52 51 51
43 44 44 45 46 46 47 48 49 50 50 51 52 52 52 52 51 51 52 53 53 54 54 54 54 54 55 55 55 55 54 54 54 54 53 53 53 52
43 43 44 46 47 48 49 50 51 51 52 52 52 52 52 53 53 54 53 54 54 55 55 55 55 56 56 56 56 56 55 55 55 55 54 54 54 54
44 45 46 47 47 48 49 50 51 51 52 52 53 54 54 55 54 55 55 55 55 56 56 56 56 57 57 57 57 56 56 56 55 55 55 55 54 54
46 47 48 49 49 50 50 50 51 52 52 53 53 54 55 55 55 55 55 55 55 56 56 56 56 56 56 56 56 56 56 56 56 56 55 55 54 54
48 49 50 50 51 52 52 52 53 53 53 53 53 54 54 54 55 56 56 56 56 56 56 57 57 56 56 56 56 56 56 56 56 56 55 55 55 55
50 51 51 51 52 52 53 53 52 52 53 53 53 53 54 55 56 56 56 56 56 56 56 55 55 55 56 56 56 56 56 56 55 55 55 55 55 54
51 51 51 52 52 52 53 53 52 53 53 53 53 54 55 55 56 57 57 57 56 55 55 54 54 54 55 55 55 55 55 55 54 54 54 54 54 53
52 52 52 52 52 52 52 52 52 52 53 53 54 54 55 56 56 56 56 56 55 55 55 54 54 54 54 54 54 54 53 53 53 53 54 53 52 51
53 53 53 53 53 52 52 52 52 52 53 53 54 55 56 56 56 56 55 55 54 54 55 54 53 53 52 52 52 52 52 53 53 53 53 52 51 51
52 52 53 53 53 53 54 54 53 53 54 54 54 55 55 56 56 56 55 55 54 54 54 54 54 53 52 51 51 52 52 53 53 52 52 51 51 50
51 51 52 52 53 53 54 54 54 54 54 54 55 55 55 55 55 55 55 55 54 54 54 54 53 53 51 50 50 51 51 51 51 50 49 48 48 48
51 51 51 52 52 53 53 54 54 54 54 55 55 54 54 54 55 55 55 55 54 54 53 53 52 52 51 50 49 48 49 48 47 46 45 45 46 46
49 50 51 51 51 52 53 53 53 53 54 54 54 54 54 54 54 54 54 54 54 53 53 52 52 51 50 49 48 47 47 46 45 45 44 44 44 44
48 50 50 51 51 51 52 52 53 53 53 53 53 53 54 54 54 53 52 52 52 51 51 50 50 49 48 47 47 46 45 44 43 43 42 42 41 41
49 50 50 50 51 51 51 51 52 52 52 52 52 52 52 52 52 51 51 51 50 49 48 48 48 47 46 45 45 44 43 42 40 40 39 39 38 38
49 50 50 51 50 50 50 50 51 51 51 51 50 50 50 50 50 50 49 49 48 47 46 46 45 44 44 43 43 42 41 39 38 37 37 37 36 35
48 49 49 48 48 48 48 49 49 49 48 48 48 48 48 48 48 47 47 46 45 45 44 43 43 42 42 41 40 40 38 37 36 36 35 34 33 32
48 47 46 46 47 47 47 47 46 45 45 45 46 46 45 45 45 44 43 43 43 42 41 41 40 40 39 39 37 36 36 35 34 33 32 30 29 28
46 45 45 45 45 45 45 44 44 43 43 43 43 43 43 42 41 41 41 40 40 39 38 37 37 37 37 36 34 33 33 33 32 31 29 28 27 26
45 44 44 44 43 43 42 41 41 40 40 40 40 40 39 39 39 39 38 37 36 36 35 35 35 35 34 33 32 31 30 30 29 28 26 26 25 24
44 43 43 42 42 41 40 39 38 38 37 37 37 37 37 37 37 36 35 34 33 33 32 32 31 31 30 30 29 28 27 26 25 25 25 24 23 23

GEFSNE_500_meanwind_198.txt.gz
Wind_Speed
44 44 45 45 45 46 46 46 46 47 47 48 49 48 48 48 49 49 50 50 51 51 52 52 53 53 53 53 54 54 53 53 53 53 52 53 53 53
42 43 44 45 45 45 46 46 46 47 48 48 48 49 49 50 50 51 52 52 53 54 54 54 54 54 54 55 55 55 55 54 54 55 55 54 54 54
42 43 44 44 44 45 46 46 47 47 48 48 49 50 51 52 52 53 54 54 54 54 55 55 55 55 55 55 55 56 56 56 56 56 56 56 56 55
43 44 45 44 44 45 45 46 47 48 48 49 50 51 52 53 54 55 55 54 54 54 55 56 56 56 56 56 57 57 57 57 57 57 57 57 57 57
44 44 44 45 45 46 46 47 48 48 48 50 51 52 53 54 54 55 55 55 55 55 55 56 56 56 57 57 58 58 58 58 58 57 58 58 57 57
44 45 45 46 46 47 47 48 49 49 50 51 52 53 54 55 55 55 55 56 56 55 55 56 56 57 58 58 58 58 58 57 57 58 58 58 57 57
45 45 45 46 46 47 48 48 49 50 52 52 53 54 54 55 55 55 55 55 56 56 56 57 56 57 57 58 57 57 57 57 58 58 59 58 58 57
44 45 45 46 47 48 49 50 51 52 53 53 53 54 54 55 55 55 55 55 56 56 57 56 56 56 56 57 57 58 58 59 59 59 58 58 57 56
44 45 46 48 49 50 51 52 53 54 54 55 54 54 55 55 55 55 56 56 56 56 56 56 57 56 56 57 58 58 58 59 59 58 57 56 56 55
46 47 48 49 51 52 52 53 53 54 54 54 54 54 55 55 56 56 56 56 56 57 57 57 57 57 57 57 57 57 57 56 56 56 55 55 54 54
49 49 49 50 50 51 52 53 53 53 53 54 54 55 56 56 56 57 57 57 56 56 57 57 56 56 56 56 56 56 55 54 54 53 53 53 53 52
50 51 51 51 51 51 52 53 53 53 54 54 54 54 55 55 56 56 57 57 56 56 55 56 55 55 54 55 55 55 54 53 53 52 51 51 51 50
48 49 50 51 51 52 53 54 54 54 54 55 54 54 55 55 55 55 56 55 55 54 54 54 54 54 54 54 54 54 53 53 51 51 50 49 48 47
47 49 50 51 52 52 52 53 54 54 54 54 54 54 54 54 54 54 55 55 54 53 53 53 53 53 53 53 52 52 52 51 50 50 49 48 47 47
48 49 50 51 51 52 52 53 53 53 53 53 53 54 53 53 53 53 53 52 52 52 52 52 53 53 53 52 51 51 50 50 50 49 48 47 46 46
47 47 48 49 50 50 51 52 52 52 53 53 52 52 52 52 52 51 51 51 51 51 51 51 52 51 51 51 50 49 49 48 48 47 46 45 46 45
45 45 46 46 47 48 49 50 51 51 51 51 50 49 49 49 49 50 50 50 49 49 49 49 49 49 49 48 47 47 46 45 45 44 44 44 43 43
44 44 44 45 46 46 47 48 49 49 48 48 48 47 47 47 47 47 47 46 46 46 46 46 46 46 45 44 44 44 43 43 42 42 42 42 41 40
43 44 44 45 45 46 47 47 47 47 47 47 46 46 45 45 44 44 44 44 44 43 43 43 43 43 42 42 41 42 42 41 40 40 40 39 38 36
43 44 44 45 45 46 46 46 46 46 45 45 44 43 43 42 42 42 42 41 41 41 40 40 41 41 41 41 40 40 40 39 38 37 37 36 34 32
44 44 45 45 45 45 45 45 44 43 43 42 41 40 40 40 39 39 39 38 38 38 38 39 40 40 40 40 38 37 36 36 35 34 33 32 30 28
44 44 45 45 45 44 44 43 42 41 40 39 38 38 38 37 37 37 36 36 36 37 38 38 38 38 37 37 35 33 33 32 32 31 30 28 26 25
44 43 43 42 42 42 42 40 39 38 37 37 37 37 36 35 35 35 35 35 35 36 36 36 36 35 34 33 32 30 29 28 28 27 25 24 23 22

GEFSNE_500_meanwind_204.txt.gz
Wind_Speed
48 47 46 45 45 45 45 44 44 44 44 44 44 45 45 45 45 46 47 48 48 49 50 51 51 52 52 53 53 53 53 54 54 54 55 54 54 55
48 48 47 47 47 47 47 46 46 46 46 45 46 46 46 47 47 48 48 48 49 50 51 52 53 53 54 54 54 54 55 55 56 56 56 56 56 56
48 48 49 48 47 48 48 47 46 46 47 47 47 47 47 47 47 47 48 49 50 51 52 52 53 55 56 56 56 57 57 57 57 57 57 58 58 58
47 48 48 47 48 49 49 48 47 46 47 47 48 48 48 48 48 48 50 51 51 52 53 54 55 56 56 57 58 59 59 58 58 58 58 59 59 59
45 46 46 47 47 47 48 48 48 47 47 47 48 49 49 49 49 50 51 52 53 53 54 55 56 57 57 59 59 59 59 59 59 59 60 60 60 60
43 44 44 45 46 47 48 49 49 49 49 48 49 50 50 51 51 52 52 53 54 55 56 56 57 58 59 59 59 59 60 60 60 60 61 61 60 60
43 44 44 45 45 46 48 48 49 50 50 50 50 51 52 52 53 54 54 55 55 56 57 58 58 58 59 59 60 60 60 60 61 62 61 61 60 60
43 45 45 44 45 46 47 48 49 50 51 51 52 52 53 54 55 56 56 56 56 57 58 58 59 59 59 60 61 61 61 61 61 61 61 61 60 60
43 43 44 44 45 46 48 49 50 51 52 52 53 53 54 55 57 57 57 57 58 59 59 59 60 60 61 61 62 62 62 61 61 60 59 60 60 60
41 43 44 44 45 46 48 49 50 51 51 52 53 53 55 56 56 57 58 58 59 60 60 61 61 61 61 61 62 62 61 60 60 59 59 59 59 59
40 41 42 43 45 46 48 49 49 50 51 52 53 53 54 55 56 58 58 59 59 59 60 60 60 60 60 60 61 61 60 59 58 58 58 58 57 57
41 43 44 45 46 47 47 48 48 49 51 52 53 54 54 55 56 57 58 59 59 60 60 60 60 60 59 59 60 59 58 57 57 57 57 56 55 54
41 42 43 44 46 47 47 48 49 50 51 52 53 54 54 55 56 57 58 58 58 59 58 58 58 58 59 57 57 56 55 55 55 54 53 52 51 50
41 42 43 43 44 46 47 48 49 50 51 51 52 53 54 55 56 56 57 58 58 57 57 57 57 57 56 54 53 52 52 52 51 50 49 49 48 48
41 42 42 43 44 45 46 47 48 49 50 51 51 52 53 55 55 56 57 57 56 56 55 55 54 54 53 51 50 50 49 49 48 48 47 47 46 46
40 41 41 42 42 43 44 45 46 47 49 50 50 51 52 53 54 54 54 53 52 52 52 52 51 51 49 49 48 48 48 47 46 46 46 45 45 46
39 40 40 41 42 43 44 44 45 46 47 48 49 50 51 51 51 50 50 49 49 49 49 49 48 48 48 47 47 46 46 45 45 45 45 44 44 44
39 39 40 41 42 42 43 44 44 45 47 47 48 49 49 48 47 46 46 46 46 46 46 47 47 46 45 45 45 45 44 43 43 44 44 43 42 42
39 39 40 40 41 42 43 43 44 45 46 47 47 46 46 45 44 43 43 43 43 44 44 44 44 44 44 43 42 43 43 42 43 42 42 41 41 40
38 39 40 41 42 42 42 43 44 45 45 45 45 45 44 43 42 42 42 41 41 41 41 41 41 42 42 41 40 40 41 42 41 40 39 39 38 37
39 40 40 41 41 42 42 43 43 43 43 43 43 42 41 41 41 40 40 39 39 38 39 39 39 39 39 39 38 38 39 39 38 36 36 35 34 33
40 40 41 41 41 41 41 41 41 41 41 41 40 40 40 39 38 38 37 37 37 36 36 36 37 37 37 37 37 36 35 35 34 34 33 32 31 29
40 40 40 40 40 39 39 39 39 39 39 39 38 38 38 37 36 35 35 35 35 35 35 35 35 35 35 35 34 33 32 31 31 30 30 29 28 27

GEFSNE_500_meanwind_210.txt.gz
Wind_Speed
47 49 50 50 49 48 48 49 49 48 47 47 47 46 47 48 48 48 48 48 48 49 49 49 49 49 50 50 51 51 51 51 52 52 52 53 53 53
47 48 49 49 50 49 49 49 49 49 50 49 49 49 49 50 50 48 49 50 49 49 50 50 50 50 51 51 51 52 52 53 54 54 55 56 56 56
46 48 48 48 49 49 49 48 49 50 50 50 50 51 50 51 51 50 50 51 51 50 51 51 51 51 52 53 53 53 54 55 56 56 57 58 58 58
46 48 48 48 48 49 49 48 48 49 50 50 50 51 51 51 51 52 52 52 52 52 52 52 53 53 53 54 55 56 56 57 58 58 59 59 59 59
45 46 47 47 47 48 48 48 48 49 50 50 49 50 51 51 52 52 52 53 53 53 53 54 54 55 55 56 57 57 58 58 58 58 59 59 59 59
44 45 46 46 46 47 47 48 49 50 51 50 49 50 51 51 52 53 53 54 53 53 53 54 55 56 57 58 58 59 59 59 60 60 60 60 60 61
42 44 45 45 45 46 47 48 49 50 51 51 50 50 51 52 52 53 53 54 53 54 54 55 56 57 58 59 59 59 60 60 61 61 60 60 61 62
39 41 42 44 44 46 46 47 48 49 49 50 50 50 50 52 52 52 53 54 54 55 56 57 58 58 59 59 59 59 60 61 61 61 62 62 62 62
38 39 40 42 43 44 46 46 47 47 47 48 49 49 50 51 52 52 53 54 55 56 57 57 58 59 59 59 59 59 60 61 61 62 62 62 62 62
38 39 40 41 42 44 45 45 46 47 47 48 48 48 49 50 51 52 52 54 55 56 57 57 58 58 58 58 59 60 61 61 61 62 62 61 61 60
37 38 40 41 42 43 44 45 45 46 46 47 49 49 50 51 52 52 53 54 55 56 57 57 57 57 57 57 58 60 60 60 60 60 59 58 58 57
38 39 40 41 42 43 43 44 45 45 46 47 49 50 51 51 52 52 53 54 54 54 54 55 56 57 56 56 57 58 58 58 58 57 57 57 57 56
37 39 40 41 42 43 43 43 44 45 46 47 49 49 50 50 50 50 51 52 53 53 54 54 54 55 55 56 57 57 57 56 56 55 55 55 55 54
36 37 37 38 40 41 42 43 44 45 46 46 46 47 47 48 49 49 49 50 51 52 52 53 53 53 54 55 55 55 55 54 54 54 53 53 52 51
36 37 38 38 39 40 41 42 43 43 43 44 44 44 45 46 46 47 48 49 50 50 50 50 51 52 53 53 53 53 53 52 52 52 51 50 49 48
35 35 36 37 38 39 41 41 41 41 41 42 42 42 43 44 44 46 47 48 48 48 48 48 49 50 50 50 50 50 50 50 50 49 48 47 47 47
35 35 36 37 38 39 39 39 39 39 40 41 41 42 42 43 45 46 47 47 46 46 46 46 46 46 47 47 48 48 48 47 47 46 45 45 45 44
36 36 37 37 37 37 37 37 38 39 39 40 41 42 42 44 45 45 45 45 45 44 44 44 44 45 44 45 45 46 45 45 45 45 44 43 43 43
35 36 36 36 36 37 37 38 38 39 40 40 41 42 43 44 44 44 43 43 43 42 42 43 43 43 43 44 44 44 44 43 43 42 42 42 41 40
36 36 36 36 36 37 37 37 38 39 40 41 42 42 42 43 43 42 41 41 41 41 42 42 42 43 43 43 42 42 42 41 40 39 39 38 37 37
36 36 36 36 36 36 37 37 38 39 40 40 41 41 41 41 40 40 40 40 40 40 41 41 42 42 42 41 40 39 38 38 37 36 36 35 34 34
36 36 36 36 37 37 37 38 38 38 38 38 38 38 38 38 38 38 39 39 39 39 39 40 40 40 39 38 37 36 35 35 35 34 33 33 32 31
36 36 37 37 37 38 37 37 37 37 37 37 37 36 36 36 36 37 37 37 37 38 38 38 38 37 36 36 35 34 33 33 32 31 31 31 31 30

GEFSNE_500_meanwind_216.txt.gz
Wind_Speed
40 41 43 44 45 46 47 48 48 48 48 48 48 48 48 48 48 48 48 49 48 48 48 48 48 48 49 49 49 49 49 50 50 51 51 52 52 52
40 41 42 44 44 46 47 48 48 48 48 49 49 48 49 49 49 50 50 49 50 49 49 50 50 50 50 51 52 51 51 51 51 52 52 53 53 53
41 42 44 44 45 45 47 48 48 48 48 48 49 50 50 51 51 51 51 51 51 51 51 51 51 51 52 52 52 52 52 53 54 54 53 54 54 54
41 42 42 43 43 45 46 47 47 47 47 48 49 49 50 52 52 52 51 51 52 52 52 53 53 53 53 53 53 53 54 55 55 55 55 54 55 55
40 41 41 42 42 42 43 45 45 46 47 48 48 49 50 50 51 51 51 52 52 53 53 53 54 54 54 55 55 55 56 56 56 56 56 56 56 56
40 41 42 41 42 42 42 43 44 45 46 47 47 48 49 49 50 50 51 52 52 52 52 53 54 54 55 56 56 57 57 56 56 56 56 57 57 58
41 41 42 42 41 42 42 43 44 44 44 45 46 46 48 48 49 49 50 51 51 51 52 53 54 54 55 56 57 57 57 56 56 56 57 57 58 59
40 40 41 42 42 42 42 42 43 43 43 43 45 46 48 48 49 49 50 50 51 52 52 52 54 55 55 56 56 57 56 56 56 57 57 58 59 59
38 39 40 41 42 42 42 42 42 42 42 43 45 45 47 48 49 50 50 50 50 51 52 52 53 54 55 55 56 55 55 55 56 57 57 58 59 59
37 38 39 40 40 41 41 41 41 41 42 43 44 45 46 48 48 49 49 49 49 50 52 52 52 52 53 53 54 54 54 55 55 56 57 58 59 58
36 37 38 38 39 39 40 40 40 41 42 42 43 45 46 47 47 47 48 48 48 49 50 51 51 51 52 52 53 53 53 54 54 56 56 57 57 57
35 36 36 37 38 39 40 41 41 42 42 42 43 44 44 45 45 46 47 47 48 48 49 50 50 51 50 50 51 52 53 53 54 55 55 55 55 53
35 35 36 37 38 39 40 41 41 42 42 42 42 42 43 44 44 45 45 46 47 48 49 49 49 50 50 50 50 51 52 52 52 52 52 52 51 51
34 35 36 36 37 38 39 40 40 40 40 41 41 41 42 43 43 44 44 45 47 47 48 48 49 50 50 50 49 49 49 49 50 50 49 49 49 49
34 34 35 35 36 36 37 37 38 38 39 40 40 41 41 42 43 43 44 45 46 46 46 47 47 48 49 49 48 48 48 48 48 48 47 47 47 47
34 34 34 35 35 35 36 37 37 38 38 38 39 39 40 41 42 42 42 43 43 44 45 45 45 45 45 45 45 45 45 45 45 45 45 46 46 47
32 33 33 34 35 35 35 36 37 38 38 38 38 39 39 40 40 40 40 41 42 43 44 44 44 43 43 42 42 42 42 43 43 44 44 44 46 46
32 32 33 33 34 35 36 36 37 37 37 37 37 38 38 39 39 38 39 40 41 41 42 42 42 42 41 40 41 41 41 41 42 42 43 43 42 42
32 32 33 33 33 34 34 35 36 36 36 36 37 37 37 38 38 38 39 40 40 40 40 40 40 39 39 38 38 38 38 38 39 39 39 39 38 37
32 33 33 33 34 34 34 34 34 35 35 35 36 36 36 37 37 38 38 38 37 37 37 37 37 37 37 37 36 36 36 36 36 37 36 36 35 35
33 33 33 34 34 34 34 34 34 34 35 35 35 35 36 36 36 36 36 36 35 35 35 35 35 35 35 34 34 35 35 36 36 35 35 34 34 33
33 33 33 34 34 34 34 34 34 34 35 35 35 35 36 35 35 35 35 35 34 34 35 35 35 35 34 33 33 34 35 35 34 34 34 33 32 32
33 33 33 33 33 33 33 33 34 34 35 35 35 35 35 35 34 34 35 35 35 35 35 35 35 34 33 33 33 34 34 33 32 32 32 32 31 30

GEFSNE_500_meanwind_222.txt.gz
Wind_Speed
43 44 44 44 44 44 44 44 45 45 45 46 46 46 47 49 51 51 51 51 52 52 52 52 52 52 51 51 50 50 50 50 50 50 51 51 51 51
41 42 42 42 42 43 43 44 44 45 45 45 46 45 46 48 49 51 51 51 52 52 52 53 53 53 53 53 52 52 52 52 52 52 53 53 53 53
40 41 41 41 41 42 43 44 44 44 44 44 45 45 46 48 48 50 50 50 51 52 52 52 52 54 54 53 53 53 54 54 54 54 54 55 55 54
38 39 40 40 41 41 42 43 43 44 44 44 45 45 46 46 47 49 50 50 50 50 50 50 52 54 54 53 53 54 54 55 56 56 57 56 56 56
38 38 39 40 41 41 42 43 43 44 44 45 45 46 47 47 47 48 49 49 50 50 50 51 53 54 54 54 54 54 55 56 56 57 57 57 57 57
38 38 39 40 40 41 42 43 44 45 45 45 45 46 46 46 47 48 48 49 49 50 50 52 53 54 54 55 55 55 56 56 56 57 58 58 58 58
38 38 39 39 40 41 42 42 43 44 44 44 44 45 45 46 47 48 49 48 48 49 50 51 53 53 54 55 56 56 56 56 57 58 58 59 59 59
38 38 39 39 39 40 41 42 42 42 42 43 44 44 44 45 47 48 49 49 49 49 49 50 51 53 54 55 56 56 56 56 58 59 60 60 60 59
38 39 39 38 38 39 40 40 40 41 41 43 44 44 44 45 47 47 48 48 48 49 49 50 52 53 53 54 54 55 56 56 57 58 59 59 58 57
37 37 38 38 39 39 39 39 40 40 41 41 42 43 44 44 45 46 47 47 48 48 50 50 51 51 50 51 52 53 55 55 55 55 56 57 57 56
35 35 35 36 37 38 38 38 38 38 39 40 41 42 42 43 44 46 47 47 47 48 48 48 48 49 49 50 51 51 52 53 54 54 53 53 53 53
35 35 35 36 36 36 37 37 38 38 39 40 40 41 42 43 44 45 46 46 46 46 46 46 46 47 47 48 49 50 51 51 52 52 51 51 50 51
35 35 36 37 37 37 37 38 38 39 39 40 41 42 42 43 43 43 45 45 45 44 44 44 44 45 46 46 47 49 49 49 49 49 49 49 50 50
35 35 35 36 37 37 37 38 38 39 39 40 40 40 41 42 43 44 43 43 43 43 43 43 44 45 45 46 46 46 47 47 47 47 47 48 48 48
34 34 34 35 36 37 38 38 39 39 39 39 39 40 40 41 42 41 40 41 41 41 42 42 43 43 44 45 45 45 45 45 46 46 46 46 46 45
33 33 34 34 35 36 37 37 37 38 38 38 39 39 40 40 39 39 40 40 40 40 40 41 41 42 43 44 44 44 44 44 44 44 44 44 44 43
32 32 32 33 33 34 35 36 36 37 38 38 39 39 39 38 38 38 38 38 39 39 39 39 40 41 41 42 42 43 43 42 42 42 42 42 41 40
32 31 31 32 33 33 34 36 36 37 37 38 38 38 37 37 37 38 38 38 38 39 39 39 39 39 40 41 41 41 41 40 40 40 40 40 39 39
30 30 30 31 32 33 34 34 35 36 36 36 36 35 36 36 36 37 37 38 38 38 38 38 38 39 39 39 39 40 39 38 39 38 38 37 37 37
30 30 30 31 31 32 33 33 34 34 35 35 35 35 36 36 36 36 36 36 36 36 36 37 37 37 37 37 38 38 38 37 37 37 37 37 37 37
29 30 30 30 31 31 32 32 33 33 33 33 34 35 35 35 35 35 35 35 35 35 35 35 35 36 36 37 36 36 36 36 36 35 35 36 36 36
29 29 30 30 30 30 31 31 32 32 32 32 33 34 34 35 35 35 35 35 35 35 35 35 35 35 36 36 36 35 35 35 34 34 35 35 35 34
29 29 29 29 30 30 31 31 31 31 32 32 33 33 34 34 34 34 35 35 34 34 34 35 35 35 35 34 34 34 34 34 34 34 35 34 34 33

GEFSNE_500_meanwind_228.txt.gz
Wind_Speed
41 41 42 42 43 44 44 44 44 44 44 44 44 44 45 46 46 46 47 46 47 48 48 49 49 50 51 51 51 51 50 50 50 50 49 50 49 50
42 42 43 44 43 43 43 43 43 44 44 43 44 44 45 45 45 46 46 47 48 49 49 49 50 50 51 51 51 50 51 51 51 50 51 51 51 52
43 43 44 44 45 44 44 44 44 44 44 43 44 44 44 45 46 46 46 46 48 48 49 49 49 49 49 50 50 50 51 51 51 51 51 52 53 53
43 44 44 45 45 44 44 43 44 44 44 43 44 44 44 45 46 46 47 47 47 47 47 48 48 48 49 50 50 51 51 52 53 53 53 53 53 54
43 43 44 44 44 44 43 44 43 43 43 44 44 44 43 44 44 45 46 46 47 46 47 47 47 48 49 50 50 51 51 52 53 54 54 55 55 55
43 43 42 43 43 43 44 44 44 45 45 44 44 44 43 44 44 44 45 46 47 47 47 47 48 48 49 50 50 51 52 53 53 53 55 56 56 55
42 42 42 42 43 43 44 44 44 45 45 45 44 43 43 43 44 45 46 46 47 47 47 47 48 48 50 51 51 51 52 52 53 53 54 56 55 54
42 42 42 42 42 42 42 44 44 44 44 44 44 44 43 44 44 45 46 45 46 47 47 47 48 49 49 50 51 51 52 52 52 53 55 56 55 54
42 41 41 42 42 42 42 43 43 44 44 44 44 44 44 44 44 44 45 45 45 46 46 46 48 49 49 49 49 50 51 52 53 54 54 54 55 54
42 41 41 40 41 42 41 42 42 42 42 43 43 43 43 44 44 44 45 45 45 47 47 46 46 47 48 48 49 49 50 51 51 52 53 53 53 53
41 41 41 40 40 41 41 41 40 40 40 41 41 41 41 41 42 42 43 45 45 45 45 46 46 46 47 47 48 49 49 50 50 50 51 52 52 53
39 39 39 39 39 40 40 40 40 40 39 39 40 40 41 41 41 41 42 43 43 43 44 45 45 46 46 46 48 48 48 49 49 50 51 51 52 52
37 37 37 37 38 38 38 38 38 39 39 39 39 40 41 41 41 41 42 42 42 42 43 43 44 45 45 45 45 46 46 47 48 49 49 50 51 51
37 36 36 36 37 37 37 37 37 37 38 38 39 39 40 40 41 41 41 42 41 41 42 42 43 43 43 43 43 44 45 46 47 47 48 48 49 49
36 36 36 36 36 37 37 37 37 38 38 37 37 38 39 39 40 40 40 40 40 40 40 41 41 41 42 42 42 42 43 44 45 45 46 45 46 46
36 35 35 35 35 35 36 36 37 37 38 38 38 38 38 38 38 38 38 38 39 39 39 40 40 41 40 41 41 42 42 43 43 44 45 45 45 44
35 35 35 34 35 35 35 36 37 37 37 37 37 37 37 37 37 37 37 37 38 38 38 38 39 40 40 40 40 41 42 42 42 42 42 42 43 43
35 35 34 34 34 34 34 34 34 34 35 35 36 36 36 36 37 37 36 37 37 37 37 38 39 38 39 39 40 41 41 41 41 40 40 40 40 41
32 32 32 32 32 32 33 33 33 33 33 33 34 34 35 35 35 36 36 36 37 37 37 37 37 37 38 38 39 39 40 40 40 40 39 39 39 39
30 30 31 31 31 31 32 32 32 32 32 32 33 34 34 34 34 35 36 36 36 36 37 37 37 37 37 37 37 38 39 39 39 38 38 38 38 38
28 29 29 30 31 31 31 32 32 32 32 33 33 34 34 34 35 35 35 35 35 36 36 37 37 37 36 36 36 36 38 38 38 37 37 37 37 37
27 28 29 29 30 30 31 32 32 32 32 33 34 34 34 34 34 35 35 34 35 35 35 35 35 36 35 35 35 36 36 36 36 36 37 37 36 35
27 28 28 29 29 30 30 30 31 31 32 33 33 33 33 33 34 34 34 34 34 34 33 33 34 34 34 34 34 34 34 35 35 35 35 36 35 35

GEFSNE_500_meanwind_234.txt.gz
Wind_Speed
44 44 45 45 44 45 45 45 45 45 45 45 46 46 46 46 46 46 45 46 46 46 46 45 46 46 46 46 47 47 47 48 48 48 49 49 49 50
44 45 45 45 44 45 45 45 45 45 45 45 45 45 46 46 45 45 45 45 45 45 45 45 46 46 47 48 48 48 49 49 50 50 50 51 51 52
44 44 44 44 44 44 45 45 45 45 45 44 44 44 44 45 45 45 46 46 45 45 45 45 46 47 48 49 49 50 50 50 49 50 52 52 53 54
44 44 44 44 45 45 46 46 45 45 45 43 42 43 43 44 45 45 45 46 46 46 46 46 47 48 49 49 49 49 50 51 51 52 52 53 54 54
44 44 44 44 44 44 44 44 44 44 43 42 42 42 43 44 44 45 45 46 47 47 46 47 48 48 49 49 49 49 50 51 52 53 54 54 54 54
43 43 43 43 43 43 43 43 43 43 43 42 42 43 43 44 44 45 46 47 46 46 46 47 47 48 48 49 50 50 51 52 52 53 54 54 54 54
44 43 43 43 43 43 43 43 43 43 44 44 44 44 44 45 45 45 46 45 45 46 46 46 47 48 49 50 50 51 52 52 53 53 53 53 53 53
44 44 44 44 44 44 44 44 44 44 45 45 45 45 45 45 45 45 45 45 46 46 46 46 47 48 49 50 51 51 51 51 52 52 51 51 52 52
46 45 45 45 45 45 45 45 45 45 46 46 46 46 45 45 45 45 45 46 46 46 47 47 47 48 49 49 50 50 50 51 51 51 51 51 50 51
46 46 45 45 45 45 46 46 46 46 46 46 45 44 44 44 45 46 46 47 46 46 47 48 48 49 49 49 49 49 49 50 50 50 50 50 50 50
45 46 45 45 45 45 45 45 45 45 45 44 44 44 44 44 45 45 46 46 46 46 46 47 48 48 47 47 47 47 48 48 48 48 48 49 49 49
45 45 45 45 45 44 44 44 44 44 43 43 44 43 43 44 44 44 45 45 45 45 44 45 45 45 44 44 45 45 46 46 45 46 46 46 47 48
43 44 44 43 43 43 42 42 42 42 42 43 43 42 42 42 42 42 42 43 43 42 43 43 43 43 43 43 44 45 45 45 45 45 45 46 47 47
42 41 41 41 40 40 40 40 40 40 41 41 41 41 41 41 40 40 41 41 41 42 42 42 42 42 42 42 43 43 44 44 44 44 45 46 46 46
39 38 38 38 39 39 39 38 38 38 39 39 39 39 39 39 39 39 39 39 41 41 41 42 42 42 42 42 42 42 43 43 44 44 44 44 44 44
37 37 37 37 37 38 38 38 37 37 36 37 37 37 37 38 39 39 39 39 40 39 39 40 40 40 40 41 41 41 42 42 42 43 42 42 43 43
35 35 35 36 36 36 37 36 36 35 35 35 35 36 37 37 38 38 38 38 39 39 39 39 38 38 39 40 40 40 40 41 41 40 40 41 41 41
34 34 35 35 35 35 35 35 35 35 35 35 34 35 35 36 37 37 37 37 37 37 37 37 37 37 38 38 39 39 39 39 39 39 39 39 39 40
34 34 34 34 34 34 34 34 34 34 34 33 33 34 34 35 36 36 36 36 36 36 36 37 37 36 37 37 37 38 38 38 38 38 38 38 38 39
33 33 33 33 33 33 33 33 33 34 34 33 33 34 34 34 35 35 35 35 36 36 36 36 36 36 36 36 36 37 37 37 37 37 37 37 38 37
32 32 32 32 31 32 32 32 33 33 34 34 34 34 34 33 34 34 34 34 35 35 35 35 35 36 36 36 36 36 36 36 36 36 36 36 36 35
30 30 29 30 30 31 31 31 32 32 33 33 33 33 33 33 33 33 33 33 33 33 33 34 34 34 34 34 34 35 35 35 35 35 35 35 35 34
28 28 28 28 29 29 29 30 31 31 31 32 32 32 32 32 32 32 32 32 32 32 32 32 33 33 32 33 33 34 34 34 34 34 34 33 33 33

GEFSNE_500_meanwind_240.txt.gz
Wind_Speed
42 42 43 43 43 43 44 44 43 42 42 42 43 43 42 43 42 42 43 43 43 44 44 44 43 44 45 45 45 44 44 44 44 44 45 45 45 46
44 44 44 45 45 44 44 44 45 44 44 43 43 43 44 43 42 43 43 43 43 43 43 43 43 44 45 45 45 46 46 46 46 46 46 48 48 47
46 46 44 45 45 45 45 45 45 45 44 44 43 43 43 43 43 44 43 43 43 43 43 43 44 45 46 46 47 48 48 48 47 47 47 48 48 47
46 46 46 47 46 46 46 46 45 45 45 43 42 42 43 43 44 44 43 43 44 44 44 44 45 45 46 47 47 48 49 49 48 48 48 48 48 48
46 46 47 46 46 46 46 46 45 45 45 44 43 43 44 44 44 43 43 43 44 44 44 45 45 46 47 48 48 48 48 49 48 49 49 49 48 48
46 45 45 46 46 45 45 45 45 45 45 45 45 44 44 44 44 44 44 44 45 45 45 46 46 47 47 49 49 49 48 48 47 47 48 48 48 48
45 45 44 45 46 45 45 44 45 45 46 46 46 45 45 44 45 45 44 45 45 46 45 46 46 46 47 48 48 48 48 48 47 47 47 47 47 48
45 45 44 44 44 44 44 44 44 44 44 45 45 45 45 45 45 44 44 45 46 46 45 45 46 46 46 47 47 47 48 47 47 47 47 47 48 49
45 45 45 44 44 44 44 44 44 44 45 45 45 44 45 45 45 45 45 46 46 46 46 45 45 45 45 46 47 48 48 47 48 47 47 48 49 50
44 44 44 44 45 45 44 44 45 45 45 45 45 44 44 45 45 45 46 46 46 46 46 45 44 43 44 44 46 47 47 47 47 47 48 49 50 50
43 43 44 44 45 45 45 45 45 45 45 45 45 45 45 45 46 46 46 46 46 45 45 45 44 44 43 44 44 45 46 47 48 48 48 48 49 49
42 43 44 45 45 45 45 45 44 44 44 45 44 44 44 45 45 46 45 44 44 44 43 44 44 45 44 44 44 45 46 47 47 48 48 48 48 48
41 42 43 43 44 44 44 44 44 44 44 44 44 44 44 45 45 44 44 44 44 44 43 44 44 44 45 44 44 45 46 46 47 47 47 48 48 48
41 41 41 42 42 42 43 43 43 43 43 42 42 43 43 42 42 42 42 42 42 42 41 42 42 43 43 43 44 44 44 45 45 46 47 47 48 48
40 40 41 41 41 41 41 41 41 41 41 41 41 41 41 40 40 40 40 41 41 40 40 41 41 41 41 42 42 42 43 43 44 45 45 46 47 47
40 40 40 40 40 39 39 39 39 39 39 39 39 39 38 39 39 39 39 39 39 39 40 40 41 40 40 40 41 41 42 42 42 42 42 43 43 44
38 38 37 37 37 37 37 37 37 37 37 37 37 37 37 38 38 38 38 38 38 38 38 38 39 39 39 40 40 40 40 40 40 41 40 40 41 41
37 36 36 35 35 35 35 36 36 36 36 37 36 36 36 36 37 37 37 37 36 37 37 38 38 39 38 39 39 38 38 38 39 39 39 39 39 40
35 34 34 34 34 34 34 34 34 34 35 35 35 35 36 36 36 36 36 35 35 35 35 36 36 37 37 36 36 36 37 37 37 38 38 38 38 39
34 34 34 34 34 34 33 33 33 33 34 34 34 34 34 34 34 34 34 34 34 35 35 35 35 35 35 35 35 35 35 35 35 35 36 36 36 37
33 33 33 33 32 32 32 32 32 32 32 33 33 33 33 33 33 33 33 33 34 34 34 34 34 34 34 34 35 35 35 35 35 35 35 35 35 35
31 31 31 31 31 31 30 30 31 31 31 32 32 32 32 32 32 32 32 32 33 33 34 34 34 34 33 34 34 34 34 34 34 35 35 35 35 35
30 30 30 30 30 30 29 30 30 30 30 31 31 31 31 31 31 31 31 31 32 32 32 32 33 33 33 32 32 32 33 33 33 34 34 34 35 35